Time,TemperatureF,DewpointF,PressureIn,WindDirection,WindDirectionDegrees,WindSpeedMPH,WindSpeedGustMPH,Humidity,HourlyPrecipIn,Conditions,Clouds,dailyrainin,SoftwareType,DateUTC
2014-07-23 00:00:00,76.8,70.2,29.89,SSW,195,1.0,2.0,80,0.00,,---,0.00,VWS V14.01,2014-07-23 05:00:00,
2014-07-23 00:01:00,76.8,70.2,29.90,WNW,302,0.0,1.0,80,0.00,,---,0.00,VWS V14.01,2014-07-23 05:01:00,
2014-07-23 00:02:00,76.8,70.2,29.89,WNW,291,0.0,2.0,80,0.00,,---,0.00,VWS V14.01,2014-07-23 05:02:00,
2014-07-23 00:03:00,76.8,70.2,29.89,WNW,291,0.0,2.0,80,0.00,,---,0.00,VWS V14.01,2014-07-23 05:03:00,
2014-07-23 00:04:00,76.8,70.2,29.89,WNW,291,0.0,2.0,80,0.00,,---,0.00,VWS V14.01,2014-07-23 05:04:00,
2014-07-23 00:05:00,76.8,70.2,29.89,WNW,291,0.0,0.0,80,0.00,,---,0.00,VWS V14.01,2014-07-23 05:05:00,
2014-07-23 00:06:00,76.8,70.2,29.90,North,2,0.0,0.0,80,0.00,,---,0.00,VWS V14.01,2014-07-23 05:06:00,
2014-07-23 00:07:00,76.8,70.2,29.89,WNW,291,0.0,0.0,80,0.00,,---,0.00,VWS V14.01,2014-07-23 05:07:00,
2014-07-23 00:08:00,76.8,70.2,29.89,WNW,297,0.0,0.0,80,0.00,,---,0.00,VWS V14.01,2014-07-23 05:08:00,
2014-07-23 00:09:00,76.8,70.2,29.89,WNW,292,0.0,0.0,80,0.00,,---,0.00,VWS V14.01,2014-07-23 05:09:00,
2014-07-23 00:10:00,76.8,70.2,29.89,WNW,292,0.0,0.0,80,0.00,,---,0.00,VWS V14.01,2014-07-23 05:10:00,
2014-07-23 00:11:00,76.8,70.2,29.89,WNW,291,0.0,2.0,80,0.00,,---,0.00,VWS V14.01,2014-07-23 05:11:00,
2014-07-23 00:12:00,76.8,70.2,29.89,NW,309,0.0,0.0,80,0.00,,---,0.00,VWS V14.01,2014-07-23 05:12:00,
2014-07-23 00:13:00,76.8,69.8,29.89,NW,309,0.0,0.0,79,0.00,,---,0.00,VWS V14.01,2014-07-23 05:13:00,
2014-07-23 00:14:00,76.8,69.8,29.90,NW,309,0.0,0.0,79,0.00,,---,0.00,VWS V14.01,2014-07-23 05:14:00,
2014-07-23 00:15:00,76.8,69.8,29.90,NW,309,0.0,0.0,79,0.00,,---,0.00,VWS V14.01,2014-07-23 05:15:00,
2014-07-23 00:16:00,76.8,70.2,29.89,WNW,291,0.0,0.0,80,0.00,,---,0.00,VWS V14.01,2014-07-23 05:16:00,
2014-07-23 00:17:00,76.8,69.8,29.90,NW,309,0.0,0.0,79,0.00,,---,0.00,VWS V14.01,2014-07-23 05:17:00,
2014-07-23 00:18:00,76.8,70.2,29.90,South,176,0.0,0.0,80,0.00,,---,0.00,VWS V14.01,2014-07-23 05:18:00,
2014-07-23 00:19:00,76.8,70.2,29.90,South,176,0.0,0.0,80,0.00,,---,0.00,VWS V14.01,2014-07-23 05:19:00,
2014-07-23 00:20:00,76.8,70.2,29.90,WNW,291,0.0,0.0,80,0.00,,---,0.00,VWS V14.01,2014-07-23 05:20:00,
2014-07-23 00:21:00,76.8,70.2,29.89,NW,309,0.0,0.0,80,0.00,,---,0.00,VWS V14.01,2014-07-23 05:21:00,
2014-07-23 00:22:00,76.8,70.2,29.90,NW,310,0.0,2.0,80,0.00,,---,0.00,VWS V14.01,2014-07-23 05:22:00,
2014-07-23 00:23:00,76.8,70.2,29.90,NW,310,0.0,2.0,80,0.00,,---,0.00,VWS V14.01,2014-07-23 05:23:00,
2014-07-23 00:24:00,76.8,70.2,29.90,NW,310,0.0,2.0,80,0.00,,---,0.00,VWS V14.01,2014-07-23 05:24:00,
2014-07-23 00:25:00,76.8,70.2,29.90,NW,310,0.0,0.0,80,0.00,,---,0.00,VWS V14.01,2014-07-23 05:25:00,
2014-07-23 00:26:00,76.8,69.8,29.90,NW,309,0.0,0.0,79,0.00,,---,0.00,VWS V14.01,2014-07-23 05:26:00,
2014-07-23 00:27:00,76.8,70.2,29.90,NW,310,0.0,0.0,80,0.00,,---,0.00,VWS V14.01,2014-07-23 05:27:00,
2014-07-23 00:28:00,76.8,70.2,29.90,NW,310,0.0,0.0,80,0.00,,---,0.00,VWS V14.01,2014-07-23 05:28:00,
2014-07-23 00:29:00,76.8,70.2,29.89,NNW,327,0.0,0.0,80,0.00,,---,0.00,VWS V14.01,2014-07-23 05:29:00,
2014-07-23 00:30:00,76.8,70.2,29.89,NNW,327,0.0,0.0,80,0.00,,---,0.00,VWS V14.01,2014-07-23 05:30:00,
2014-07-23 00:31:00,76.8,70.2,29.90,NW,310,0.0,2.0,80,0.00,,---,0.00,VWS V14.01,2014-07-23 05:31:00,
2014-07-23 00:32:00,76.8,70.2,29.89,NNW,327,0.0,1.0,80,0.00,,---,0.00,VWS V14.01,2014-07-23 05:32:00,
2014-07-23 00:33:00,76.8,70.2,29.89,NNW,327,0.0,1.0,80,0.00,,---,0.00,VWS V14.01,2014-07-23 05:33:00,
2014-07-23 00:34:00,76.8,70.2,29.89,NNW,327,0.0,1.0,80,0.00,,---,0.00,VWS V14.01,2014-07-23 05:34:00,
2014-07-23 00:35:00,76.8,70.2,29.89,NNW,327,0.0,0.0,80,0.00,,---,0.00,VWS V14.01,2014-07-23 05:35:00,
2014-07-23 00:36:00,76.8,70.2,29.90,NW,310,0.0,0.0,80,0.00,,---,0.00,VWS V14.01,2014-07-23 05:36:00,
2014-07-23 00:37:00,76.8,70.2,29.89,NW,310,0.0,3.0,80,0.00,,---,0.00,VWS V14.01,2014-07-23 05:37:00,
2014-07-23 00:38:00,76.8,70.2,29.89,NW,310,0.0,3.0,80,0.00,,---,0.00,VWS V14.01,2014-07-23 05:38:00,
2014-07-23 00:39:00,76.8,70.2,29.89,NW,310,0.0,3.0,80,0.00,,---,0.00,VWS V14.01,2014-07-23 05:39:00,
2014-07-23 00:40:00,76.8,70.2,29.89,WNW,295,0.0,0.0,80,0.00,,---,0.00,VWS V14.01,2014-07-23 05:40:00,
2014-07-23 00:41:00,76.8,70.2,29.89,NNW,327,0.0,0.0,80,0.00,,---,0.00,VWS V14.01,2014-07-23 05:41:00,
2014-07-23 00:42:00,77.0,70.4,29.89,WNW,295,0.0,0.0,80,0.00,,---,0.00,VWS V14.01,2014-07-23 05:42:00,
2014-07-23 00:43:00,77.0,70.4,29.89,WNW,295,2.0,2.0,80,0.00,,---,0.00,VWS V14.01,2014-07-23 05:43:00,
2014-07-23 00:44:00,77.0,70.4,29.89,WNW,295,0.0,2.0,80,0.00,,---,0.00,VWS V14.01,2014-07-23 05:44:00,
2014-07-23 00:45:00,77.0,70.4,29.89,WNW,295,0.0,0.0,80,0.00,,---,0.00,VWS V14.01,2014-07-23 05:45:00,
2014-07-23 00:46:00,76.8,70.2,29.89,NW,319,0.0,0.0,80,0.00,,---,0.00,VWS V14.01,2014-07-23 05:46:00,
2014-07-23 00:47:00,76.8,70.2,29.89,WNW,295,0.0,0.0,80,0.00,,---,0.00,VWS V14.01,2014-07-23 05:47:00,
2014-07-23 00:48:00,76.8,70.2,29.89,WNW,295,0.0,0.0,80,0.00,,---,0.00,VWS V14.01,2014-07-23 05:48:00,
2014-07-23 00:49:00,76.8,70.2,29.89,WNW,295,0.0,0.0,80,0.00,,---,0.00,VWS V14.01,2014-07-23 05:49:00,
2014-07-23 00:50:00,76.8,70.2,29.89,WNW,295,0.0,1.0,80,0.00,,---,0.00,VWS V14.01,2014-07-23 05:50:00,
2014-07-23 00:51:00,77.0,70.4,29.89,WNW,295,0.0,0.0,80,0.00,,---,0.00,VWS V14.01,2014-07-23 05:51:00,
2014-07-23 00:52:00,76.8,70.2,29.89,WNW,295,0.0,1.0,80,0.00,,---,0.00,VWS V14.01,2014-07-23 05:52:00,
2014-07-23 00:53:00,76.8,70.2,29.89,WNW,295,0.0,1.0,80,0.00,,---,0.00,VWS V14.01,2014-07-23 05:53:00,
2014-07-23 00:54:00,76.8,70.2,29.89,WNW,295,0.0,1.0,80,0.00,,---,0.00,VWS V14.01,2014-07-23 05:54:00,
2014-07-23 00:55:00,76.8,70.2,29.89,WNW,295,0.0,0.0,80,0.00,,---,0.00,VWS V14.01,2014-07-23 05:55:00,
2014-07-23 00:56:00,76.8,70.2,29.89,WNW,295,0.0,0.0,80,0.00,,---,0.00,VWS V14.01,2014-07-23 05:56:00,
2014-07-23 00:57:00,76.8,70.5,29.89,WNW,295,0.0,0.0,81,0.00,,---,0.00,VWS V14.01,2014-07-23 05:57:00,
2014-07-23 00:58:00,76.7,70.4,29.89,North,353,0.0,0.0,81,0.00,,---,0.00,VWS V14.01,2014-07-23 05:58:00,
2014-07-23 00:59:00,76.7,70.4,29.88,North,353,0.0,0.0,81,0.00,,---,0.00,VWS V14.01,2014-07-23 05:59:00,
2014-07-23 01:00:00,76.7,70.4,29.88,North,353,0.0,0.0,81,0.00,,---,0.00,VWS V14.01,2014-07-23 06:00:00,
2014-07-23 01:01:00,76.8,70.2,29.89,WNW,295,0.0,1.0,80,0.00,,---,0.00,VWS V14.01,2014-07-23 06:01:00,
2014-07-23 01:02:00,76.7,70.4,29.88,North,353,0.0,0.0,81,0.00,,---,0.00,VWS V14.01,2014-07-23 06:02:00,
2014-07-23 01:03:00,76.7,70.4,29.88,North,357,0.0,0.0,81,0.00,,---,0.00,VWS V14.01,2014-07-23 06:03:00,
2014-07-23 01:04:00,76.7,70.4,29.88,North,356,0.0,0.0,81,0.00,,---,0.00,VWS V14.01,2014-07-23 06:04:00,
2014-07-23 01:05:00,76.7,70.4,29.88,WNW,283,0.0,1.0,81,0.00,,---,0.00,VWS V14.01,2014-07-23 06:05:00,
2014-07-23 01:06:00,76.8,70.5,29.89,WNW,295,0.0,0.0,81,0.00,,---,0.00,VWS V14.01,2014-07-23 06:06:00,
2014-07-23 01:07:00,76.7,70.4,29.88,West,277,0.0,2.0,81,0.00,,---,0.00,VWS V14.01,2014-07-23 06:07:00,
2014-07-23 01:08:00,76.7,70.1,29.88,WNW,284,0.0,2.0,80,0.00,,---,0.00,VWS V14.01,2014-07-23 06:08:00,
2014-07-23 01:09:00,76.7,70.1,29.88,West,281,0.0,2.0,80,0.00,,---,0.00,VWS V14.01,2014-07-23 06:09:00,
2014-07-23 01:10:00,76.7,70.1,29.88,SSW,208,0.0,2.0,80,0.00,,---,0.00,VWS V14.01,2014-07-23 06:10:00,
2014-07-23 01:11:00,76.7,70.4,29.88,North,353,0.0,0.0,81,0.00,,---,0.00,VWS V14.01,2014-07-23 06:11:00,
2014-07-23 01:12:00,76.8,70.2,29.88,SW,229,0.0,2.0,80,0.00,,---,0.00,VWS V14.01,2014-07-23 06:12:00,
2014-07-23 01:13:00,76.8,70.2,29.88,WSW,252,0.0,2.0,80,0.00,,---,0.00,VWS V14.01,2014-07-23 06:13:00,
2014-07-23 01:14:00,76.8,70.2,29.88,WNW,303,0.0,2.0,80,0.00,,---,0.00,VWS V14.01,2014-07-23 06:14:00,
2014-07-23 01:15:00,76.8,70.2,29.88,WNW,303,0.0,0.0,80,0.00,,---,0.00,VWS V14.01,2014-07-23 06:15:00,
2014-07-23 01:16:00,76.7,70.4,29.88,West,280,0.0,2.0,81,0.00,,---,0.00,VWS V14.01,2014-07-23 06:16:00,
2014-07-23 01:17:00,77.0,70.0,29.88,WNW,303,0.0,0.0,79,0.00,,---,0.00,VWS V14.01,2014-07-23 06:17:00,
2014-07-23 01:18:00,77.2,70.2,29.88,WNW,303,0.0,0.0,79,0.00,,---,0.00,VWS V14.01,2014-07-23 06:18:00,
2014-07-23 01:19:00,77.2,69.8,29.88,NE,38,0.0,1.0,78,0.00,,---,0.00,VWS V14.01,2014-07-23 06:19:00,
2014-07-23 01:20:00,77.4,70.0,29.88,NE,38,0.0,0.0,78,0.00,,---,0.00,VWS V14.01,2014-07-23 06:20:00,
2014-07-23 01:21:00,76.7,70.1,29.88,WNW,291,0.0,2.0,80,0.00,,---,0.00,VWS V14.01,2014-07-23 06:21:00,
2014-07-23 01:22:00,77.4,70.0,29.88,NW,306,0.0,2.0,78,0.00,,---,0.00,VWS V14.01,2014-07-23 06:22:00,
2014-07-23 01:23:00,77.4,70.0,29.88,NW,306,0.0,2.0,78,0.00,,---,0.00,VWS V14.01,2014-07-23 06:23:00,
2014-07-23 01:24:00,77.6,70.2,29.88,NW,306,0.0,2.0,78,0.00,,---,0.00,VWS V14.01,2014-07-23 06:24:00,
2014-07-23 01:25:00,77.6,70.6,29.88,NW,306,0.0,0.0,79,0.00,,---,0.00,VWS V14.01,2014-07-23 06:25:00,
2014-07-23 01:26:00,77.0,70.0,29.88,WNW,303,0.0,0.0,79,0.00,,---,0.00,VWS V14.01,2014-07-23 06:26:00,
2014-07-23 01:27:00,77.6,70.6,29.88,NW,304,0.0,0.0,79,0.00,,---,0.00,VWS V14.01,2014-07-23 06:27:00,
2014-07-23 01:28:00,77.6,70.6,29.88,NW,304,0.0,0.0,79,0.00,,---,0.00,VWS V14.01,2014-07-23 06:28:00,
2014-07-23 01:29:00,77.6,70.6,29.89,NW,304,0.0,0.0,79,0.00,,---,0.00,VWS V14.01,2014-07-23 06:29:00,
2014-07-23 01:30:00,77.6,70.2,29.89,NW,304,0.0,0.0,78,0.00,,---,0.00,VWS V14.01,2014-07-23 06:30:00,
2014-07-23 01:31:00,77.4,70.0,29.88,NW,306,0.0,2.0,78,0.00,,---,0.00,VWS V14.01,2014-07-23 06:31:00,
2014-07-23 01:32:00,77.6,70.6,29.89,NW,304,0.0,0.0,79,0.00,,---,0.00,VWS V14.01,2014-07-23 06:32:00,
2014-07-23 01:33:00,77.6,70.6,29.89,NW,304,0.0,0.0,79,0.00,,---,0.00,VWS V14.01,2014-07-23 06:33:00,
2014-07-23 01:34:00,77.6,70.6,29.89,NW,304,0.0,0.0,79,0.00,,---,0.00,VWS V14.01,2014-07-23 06:34:00,
2014-07-23 01:35:00,77.6,70.6,29.89,NW,304,0.0,0.0,79,0.00,,---,0.00,VWS V14.01,2014-07-23 06:35:00,
2014-07-23 01:36:00,77.6,70.6,29.88,NW,304,0.0,0.0,79,0.00,,---,0.00,VWS V14.01,2014-07-23 06:36:00,
2014-07-23 01:37:00,77.4,70.8,29.89,NW,304,0.0,0.0,80,0.00,,---,0.00,VWS V14.01,2014-07-23 06:37:00,
2014-07-23 01:38:00,77.4,70.4,29.89,NW,304,0.0,0.0,79,0.00,,---,0.00,VWS V14.01,2014-07-23 06:38:00,
2014-07-23 01:39:00,77.4,70.8,29.89,NW,304,0.0,0.0,80,0.00,,---,0.00,VWS V14.01,2014-07-23 06:39:00,
2014-07-23 01:40:00,77.4,70.8,29.89,NW,304,0.0,0.0,80,0.00,,---,0.00,VWS V14.01,2014-07-23 06:40:00,
2014-07-23 01:41:00,77.6,70.6,29.89,NW,304,0.0,0.0,79,0.00,,---,0.00,VWS V14.01,2014-07-23 06:41:00,
2014-07-23 01:42:00,77.2,70.6,29.89,NW,304,0.0,0.0,80,0.00,,---,0.00,VWS V14.01,2014-07-23 06:42:00,
2014-07-23 01:43:00,77.2,70.6,29.89,NW,304,0.0,0.0,80,0.00,,---,0.00,VWS V14.01,2014-07-23 06:43:00,
2014-07-23 01:44:00,77.2,70.6,29.90,NW,304,0.0,0.0,80,0.00,,---,0.00,VWS V14.01,2014-07-23 06:44:00,
2014-07-23 01:45:00,77.2,70.9,29.90,NW,304,0.0,0.0,81,0.00,,---,0.00,VWS V14.01,2014-07-23 06:45:00,
2014-07-23 01:46:00,77.4,70.4,29.89,NW,304,0.0,0.0,79,0.00,,---,0.00,VWS V14.01,2014-07-23 06:46:00,
2014-07-23 01:47:00,77.0,70.7,29.90,NW,304,0.0,0.0,81,0.00,,---,0.00,VWS V14.01,2014-07-23 06:47:00,
2014-07-23 01:48:00,77.0,70.7,29.90,NW,304,0.0,0.0,81,0.00,,---,0.00,VWS V14.01,2014-07-23 06:48:00,
2014-07-23 01:49:00,76.8,70.5,29.90,NW,304,0.0,0.0,81,0.00,,---,0.00,VWS V14.01,2014-07-23 06:49:00,
2014-07-23 01:50:00,76.8,70.5,29.90,NW,304,0.0,0.0,81,0.00,,---,0.00,VWS V14.01,2014-07-23 06:50:00,
2014-07-23 01:51:00,77.2,70.6,29.89,NW,304,0.0,0.0,80,0.00,,---,0.00,VWS V14.01,2014-07-23 06:51:00,
2014-07-23 01:52:00,76.7,70.8,29.90,NW,304,0.0,0.0,82,0.00,,---,0.00,VWS V14.01,2014-07-23 06:52:00,
2014-07-23 01:53:00,76.7,70.8,29.90,NW,304,0.0,0.0,82,0.00,,---,0.00,VWS V14.01,2014-07-23 06:53:00,
2014-07-23 01:54:00,76.7,70.8,29.90,NW,304,0.0,0.0,82,0.00,,---,0.00,VWS V14.01,2014-07-23 06:54:00,
2014-07-23 01:55:00,76.7,70.8,29.90,NW,304,0.0,0.0,82,0.00,,---,0.00,VWS V14.01,2014-07-23 06:55:00,
2014-07-23 01:56:00,77.0,70.7,29.90,NW,304,0.0,0.0,81,0.00,,---,0.00,VWS V14.01,2014-07-23 06:56:00,
2014-07-23 01:57:00,76.5,70.6,29.90,NW,304,0.0,0.0,82,0.00,,---,0.00,VWS V14.01,2014-07-23 06:57:00,
2014-07-23 01:58:00,76.5,71.0,29.90,NW,304,0.0,0.0,83,0.00,,---,0.00,VWS V14.01,2014-07-23 06:58:00,
2014-07-23 01:59:00,76.3,70.8,29.90,NW,304,0.0,0.0,83,0.00,,---,0.00,VWS V14.01,2014-07-23 06:59:00,
2014-07-23 02:00:00,76.3,70.8,29.90,NW,304,0.0,0.0,83,0.00,,---,0.00,VWS V14.01,2014-07-23 07:00:00,
2014-07-23 02:01:00,76.8,70.5,29.90,NW,304,0.0,0.0,81,0.00,,---,0.00,VWS V14.01,2014-07-23 07:01:00,
2014-07-23 02:02:00,76.3,70.8,29.90,NW,304,0.0,0.0,83,0.00,,---,0.00,VWS V14.01,2014-07-23 07:02:00,
2014-07-23 02:03:00,76.1,70.6,29.90,NW,304,0.0,0.0,83,0.00,,---,0.00,VWS V14.01,2014-07-23 07:03:00,
2014-07-23 02:04:00,76.1,70.6,29.90,NW,304,0.0,0.0,83,0.00,,---,0.00,VWS V14.01,2014-07-23 07:04:00,
2014-07-23 02:05:00,76.1,70.6,29.90,NW,304,0.0,0.0,83,0.00,,---,0.00,VWS V14.01,2014-07-23 07:05:00,
2014-07-23 02:06:00,76.5,70.6,29.90,NW,304,0.0,0.0,82,0.00,,---,0.00,VWS V14.01,2014-07-23 07:06:00,
2014-07-23 02:07:00,76.0,70.5,29.90,NW,304,0.0,0.0,83,0.00,,---,0.00,VWS V14.01,2014-07-23 07:07:00,
2014-07-23 02:08:00,76.0,70.5,29.90,NW,304,0.0,0.0,83,0.00,,---,0.00,VWS V14.01,2014-07-23 07:08:00,
2014-07-23 02:09:00,76.0,70.5,29.90,NW,304,0.0,0.0,83,0.00,,---,0.00,VWS V14.01,2014-07-23 07:09:00,
2014-07-23 02:10:00,76.0,70.8,29.90,NW,304,0.0,0.0,84,0.00,,---,0.00,VWS V14.01,2014-07-23 07:10:00,
2014-07-23 02:11:00,76.3,70.8,29.90,NW,304,0.0,0.0,83,0.00,,---,0.00,VWS V14.01,2014-07-23 07:11:00,
2014-07-23 02:12:00,75.8,70.6,29.90,NW,304,0.0,0.0,84,0.00,,---,0.00,VWS V14.01,2014-07-23 07:12:00,
2014-07-23 02:13:00,75.8,70.6,29.90,NW,304,0.0,0.0,84,0.00,,---,0.00,VWS V14.01,2014-07-23 07:13:00,
2014-07-23 02:14:00,75.8,70.6,29.89,NW,304,0.0,0.0,84,0.00,,---,0.00,VWS V14.01,2014-07-23 07:14:00,
2014-07-23 02:15:00,75.8,70.6,29.89,NW,304,0.0,0.0,84,0.00,,---,0.00,VWS V14.01,2014-07-23 07:15:00,
2014-07-23 02:16:00,76.1,70.6,29.90,NW,304,0.0,0.0,83,0.00,,---,0.00,VWS V14.01,2014-07-23 07:16:00,
2014-07-23 02:17:00,75.6,70.8,29.89,NW,304,0.0,0.0,85,0.00,,---,0.00,VWS V14.01,2014-07-23 07:17:00,
2014-07-23 02:18:00,75.6,70.8,29.89,NW,304,0.0,0.0,85,0.00,,---,0.00,VWS V14.01,2014-07-23 07:18:00,
2014-07-23 02:19:00,75.6,70.8,29.89,NW,304,0.0,0.0,85,0.00,,---,0.00,VWS V14.01,2014-07-23 07:19:00,
2014-07-23 02:20:00,75.6,70.8,29.89,NW,304,0.0,0.0,85,0.00,,---,0.00,VWS V14.01,2014-07-23 07:20:00,
2014-07-23 02:21:00,76.0,70.8,29.90,NW,304,0.0,0.0,84,0.00,,---,0.00,VWS V14.01,2014-07-23 07:21:00,
2014-07-23 02:22:00,75.4,70.6,29.89,NW,304,0.0,0.0,85,0.00,,---,0.00,VWS V14.01,2014-07-23 07:22:00,
2014-07-23 02:23:00,75.4,70.6,29.89,NW,304,0.0,0.0,85,0.00,,---,0.00,VWS V14.01,2014-07-23 07:23:00,
2014-07-23 02:24:00,75.4,70.6,29.89,NW,304,0.0,0.0,85,0.00,,---,0.00,VWS V14.01,2014-07-23 07:24:00,
2014-07-23 02:25:00,75.4,70.6,29.89,NW,304,0.0,0.0,85,0.00,,---,0.00,VWS V14.01,2014-07-23 07:25:00,
2014-07-23 02:26:00,75.6,70.8,29.89,NW,304,0.0,0.0,85,0.00,,---,0.00,VWS V14.01,2014-07-23 07:26:00,
2014-07-23 02:27:00,75.4,70.6,29.89,NW,304,0.0,0.0,85,0.00,,---,0.00,VWS V14.01,2014-07-23 07:27:00,
2014-07-23 02:28:00,75.3,70.5,29.89,NW,304,0.0,0.0,85,0.00,,---,0.00,VWS V14.01,2014-07-23 07:28:00,
2014-07-23 02:29:00,75.3,70.5,29.89,NW,304,0.0,0.0,85,0.00,,---,0.00,VWS V14.01,2014-07-23 07:29:00,
2014-07-23 02:30:00,75.3,70.5,29.89,NW,304,0.0,0.0,85,0.00,,---,0.00,VWS V14.01,2014-07-23 07:30:00,
2014-07-23 02:31:00,75.6,70.8,29.89,NW,304,0.0,0.0,85,0.00,,---,0.00,VWS V14.01,2014-07-23 07:31:00,
2014-07-23 02:32:00,75.3,70.5,29.89,NW,304,0.0,0.0,85,0.00,,---,0.00,VWS V14.01,2014-07-23 07:32:00,
2014-07-23 02:33:00,75.3,70.5,29.89,NW,304,0.0,0.0,85,0.00,,---,0.00,VWS V14.01,2014-07-23 07:33:00,
2014-07-23 02:34:00,75.3,70.8,29.89,NW,304,0.0,0.0,86,0.00,,---,0.00,VWS V14.01,2014-07-23 07:34:00,
2014-07-23 02:35:00,75.3,70.8,29.89,NW,304,0.0,0.0,86,0.00,,---,0.00,VWS V14.01,2014-07-23 07:35:00,
2014-07-23 02:36:00,75.4,70.6,29.89,NW,304,0.0,0.0,85,0.00,,---,0.00,VWS V14.01,2014-07-23 07:36:00,
2014-07-23 02:37:00,75.1,70.6,29.89,NW,304,0.0,0.0,86,0.00,,---,0.00,VWS V14.01,2014-07-23 07:37:00,
2014-07-23 02:38:00,75.1,70.6,29.89,NW,304,0.0,0.0,86,0.00,,---,0.00,VWS V14.01,2014-07-23 07:38:00,
2014-07-23 02:39:00,75.1,70.6,29.89,NW,304,0.0,0.0,86,0.00,,---,0.00,VWS V14.01,2014-07-23 07:39:00,
2014-07-23 02:40:00,75.1,70.6,29.89,NW,304,0.0,0.0,86,0.00,,---,0.00,VWS V14.01,2014-07-23 07:40:00,
2014-07-23 02:41:00,75.3,70.5,29.89,NW,304,0.0,0.0,85,0.00,,---,0.00,VWS V14.01,2014-07-23 07:41:00,
2014-07-23 02:42:00,75.1,70.6,29.89,NW,304,0.0,0.0,86,0.00,,---,0.00,VWS V14.01,2014-07-23 07:42:00,
2014-07-23 02:43:00,75.1,70.6,29.89,NW,304,0.0,0.0,86,0.00,,---,0.00,VWS V14.01,2014-07-23 07:43:00,
2014-07-23 02:44:00,75.1,70.6,29.88,NW,304,0.0,0.0,86,0.00,,---,0.00,VWS V14.01,2014-07-23 07:44:00,
2014-07-23 02:45:00,75.1,70.6,29.88,NW,304,0.0,0.0,86,0.00,,---,0.00,VWS V14.01,2014-07-23 07:45:00,
2014-07-23 02:46:00,75.3,70.8,29.89,NW,304,0.0,0.0,86,0.00,,---,0.00,VWS V14.01,2014-07-23 07:46:00,
2014-07-23 02:47:00,75.1,71.0,29.88,NW,304,0.0,0.0,87,0.00,,---,0.00,VWS V14.01,2014-07-23 07:47:00,
2014-07-23 02:48:00,75.1,71.0,29.88,NW,304,0.0,0.0,87,0.00,,---,0.00,VWS V14.01,2014-07-23 07:48:00,
2014-07-23 02:49:00,74.9,70.8,29.88,NW,304,0.0,0.0,87,0.00,,---,0.00,VWS V14.01,2014-07-23 07:49:00,
2014-07-23 02:50:00,74.9,70.8,29.88,NW,304,0.0,0.0,87,0.00,,---,0.00,VWS V14.01,2014-07-23 07:50:00,
2014-07-23 02:51:00,75.1,70.6,29.89,NW,304,0.0,0.0,86,0.00,,---,0.00,VWS V14.01,2014-07-23 07:51:00,
2014-07-23 02:52:00,74.9,71.1,29.88,NW,304,0.0,0.0,88,0.00,,---,0.00,VWS V14.01,2014-07-23 07:52:00,
2014-07-23 02:53:00,74.9,71.1,29.88,NW,304,0.0,0.0,88,0.00,,---,0.00,VWS V14.01,2014-07-23 07:53:00,
2014-07-23 02:54:00,74.9,71.1,29.88,NW,304,0.0,0.0,88,0.00,,---,0.00,VWS V14.01,2014-07-23 07:54:00,
2014-07-23 02:55:00,74.9,71.1,29.88,NW,304,0.0,0.0,88,0.00,,---,0.00,VWS V14.01,2014-07-23 07:55:00,
2014-07-23 02:56:00,75.1,70.6,29.88,NW,304,0.0,0.0,86,0.00,,---,0.00,VWS V14.01,2014-07-23 07:56:00,
2014-07-23 02:57:00,74.9,71.1,29.88,NW,304,0.0,0.0,88,0.00,,---,0.00,VWS V14.01,2014-07-23 07:57:00,
2014-07-23 02:58:00,74.7,70.9,29.88,NW,304,0.0,0.0,88,0.00,,---,0.00,VWS V14.01,2014-07-23 07:58:00,
2014-07-23 02:59:00,74.7,70.9,29.88,NW,304,0.0,0.0,88,0.00,,---,0.00,VWS V14.01,2014-07-23 07:59:00,
2014-07-23 03:00:00,74.7,70.9,29.88,NW,304,0.0,0.0,88,0.00,,---,0.00,VWS V14.01,2014-07-23 08:00:00,
2014-07-23 03:01:00,74.9,71.1,29.88,NW,304,0.0,0.0,88,0.00,,---,0.00,VWS V14.01,2014-07-23 08:01:00,
2014-07-23 03:02:00,74.7,70.9,29.88,NW,304,0.0,0.0,88,0.00,,---,0.00,VWS V14.01,2014-07-23 08:02:00,
2014-07-23 03:03:00,74.7,70.9,29.88,NW,304,0.0,0.0,88,0.00,,---,0.00,VWS V14.01,2014-07-23 08:03:00,
2014-07-23 03:04:00,74.7,70.9,29.88,NW,304,0.0,0.0,88,0.00,,---,0.00,VWS V14.01,2014-07-23 08:04:00,
2014-07-23 03:05:00,74.7,70.9,29.88,NW,304,0.0,0.0,88,0.00,,---,0.00,VWS V14.01,2014-07-23 08:05:00,
2014-07-23 03:06:00,74.9,71.1,29.88,NW,304,0.0,0.0,88,0.00,,---,0.00,VWS V14.01,2014-07-23 08:06:00,
2014-07-23 03:07:00,74.7,70.9,29.88,NW,304,0.0,0.0,88,0.00,,---,0.00,VWS V14.01,2014-07-23 08:07:00,
2014-07-23 03:08:00,74.9,71.1,29.88,NW,304,0.0,0.0,88,0.00,,---,0.00,VWS V14.01,2014-07-23 08:08:00,
2014-07-23 03:09:00,74.9,71.1,29.88,NW,304,0.0,0.0,88,0.00,,---,0.00,VWS V14.01,2014-07-23 08:09:00,
2014-07-23 03:10:00,74.9,71.1,29.88,NW,304,0.0,0.0,88,0.00,,---,0.00,VWS V14.01,2014-07-23 08:10:00,
2014-07-23 03:11:00,74.7,70.9,29.88,NW,304,0.0,0.0,88,0.00,,---,0.00,VWS V14.01,2014-07-23 08:11:00,
2014-07-23 03:12:00,74.9,71.1,29.88,WNW,301,0.0,0.0,88,0.00,,---,0.00,VWS V14.01,2014-07-23 08:12:00,
2014-07-23 03:13:00,74.9,71.1,29.88,WNW,301,0.0,0.0,88,0.00,,---,0.00,VWS V14.01,2014-07-23 08:13:00,
2014-07-23 03:14:00,75.1,71.3,29.88,WNW,301,0.0,0.0,88,0.00,,---,0.00,VWS V14.01,2014-07-23 08:14:00,
2014-07-23 03:15:00,75.1,71.3,29.88,WNW,301,0.0,0.0,88,0.00,,---,0.00,VWS V14.01,2014-07-23 08:15:00,
2014-07-23 03:16:00,74.7,70.9,29.88,NW,304,0.0,0.0,88,0.00,,---,0.00,VWS V14.01,2014-07-23 08:16:00,
2014-07-23 03:17:00,75.1,71.3,29.88,NW,307,0.0,0.0,88,0.00,,---,0.00,VWS V14.01,2014-07-23 08:17:00,
2014-07-23 03:18:00,75.1,71.3,29.88,West,261,0.0,1.0,88,0.00,,---,0.00,VWS V14.01,2014-07-23 08:18:00,
2014-07-23 03:19:00,75.1,71.3,29.88,South,186,0.0,1.0,88,0.00,,---,0.00,VWS V14.01,2014-07-23 08:19:00,
2014-07-23 03:20:00,75.3,71.2,29.88,SSW,197,0.0,0.0,87,0.00,,---,0.00,VWS V14.01,2014-07-23 08:20:00,
2014-07-23 03:21:00,74.9,71.1,29.88,WNW,301,0.0,0.0,88,0.00,,---,0.00,VWS V14.01,2014-07-23 08:21:00,
2014-07-23 03:22:00,75.3,71.2,29.88,West,261,0.0,1.0,87,0.00,,---,0.00,VWS V14.01,2014-07-23 08:22:00,
2014-07-23 03:23:00,75.3,71.2,29.88,West,261,0.0,1.0,87,0.00,,---,0.00,VWS V14.01,2014-07-23 08:23:00,
2014-07-23 03:24:00,75.4,71.3,29.88,West,261,0.0,1.0,87,0.00,,---,0.00,VWS V14.01,2014-07-23 08:24:00,
2014-07-23 03:25:00,75.4,71.3,29.88,West,261,0.0,0.0,87,0.00,,---,0.00,VWS V14.01,2014-07-23 08:25:00,
2014-07-23 03:26:00,75.1,71.3,29.88,WNW,301,0.0,0.0,88,0.00,,---,0.00,VWS V14.01,2014-07-23 08:26:00,
2014-07-23 03:27:00,75.4,70.9,29.88,SW,218,0.0,1.0,86,0.00,,---,0.00,VWS V14.01,2014-07-23 08:27:00,
2014-07-23 03:28:00,75.6,71.1,29.88,SW,218,0.0,1.0,86,0.00,,---,0.00,VWS V14.01,2014-07-23 08:28:00,
2014-07-23 03:29:00,75.6,71.1,29.88,SW,218,0.0,1.0,86,0.00,,---,0.00,VWS V14.01,2014-07-23 08:29:00,
2014-07-23 03:30:00,75.6,71.1,29.88,SW,218,0.0,0.0,86,0.00,,---,0.00,VWS V14.01,2014-07-23 08:30:00,
2014-07-23 03:31:00,75.3,71.2,29.88,SSW,193,0.0,0.0,87,0.00,,---,0.00,VWS V14.01,2014-07-23 08:31:00,
2014-07-23 03:32:00,75.6,71.1,29.88,SSW,213,0.0,2.0,86,0.00,,---,0.00,VWS V14.01,2014-07-23 08:32:00,
2014-07-23 03:33:00,75.8,71.3,29.88,West,278,0.0,2.0,86,0.00,,---,0.00,VWS V14.01,2014-07-23 08:33:00,
2014-07-23 03:34:00,75.8,71.0,29.88,WSW,254,0.0,2.0,85,0.00,,---,0.00,VWS V14.01,2014-07-23 08:34:00,
2014-07-23 03:35:00,75.8,71.0,29.88,WSW,254,0.0,0.0,85,0.00,,---,0.00,VWS V14.01,2014-07-23 08:35:00,
2014-07-23 03:36:00,75.4,70.9,29.88,SW,218,0.0,1.0,86,0.00,,---,0.00,VWS V14.01,2014-07-23 08:36:00,
2014-07-23 03:37:00,75.8,71.0,29.88,WSW,244,0.0,2.0,85,0.00,,---,0.00,VWS V14.01,2014-07-23 08:37:00,
2014-07-23 03:38:00,75.8,71.0,29.88,West,280,0.0,2.0,85,0.00,,---,0.00,VWS V14.01,2014-07-23 08:38:00,
2014-07-23 03:39:00,76.0,71.2,29.88,West,280,0.0,2.0,85,0.00,,---,0.00,VWS V14.01,2014-07-23 08:39:00,
2014-07-23 03:40:00,76.0,71.2,29.88,WNW,290,0.0,0.0,85,0.00,,---,0.00,VWS V14.01,2014-07-23 08:40:00,
2014-07-23 03:41:00,75.6,71.1,29.88,SW,218,0.0,2.0,86,0.00,,---,0.00,VWS V14.01,2014-07-23 08:41:00,
2014-07-23 03:42:00,76.0,70.8,29.88,WNW,283,0.0,0.0,84,0.00,,---,0.00,VWS V14.01,2014-07-23 08:42:00,
2014-07-23 03:43:00,76.0,70.8,29.88,WNW,283,0.0,0.0,84,0.00,,---,0.00,VWS V14.01,2014-07-23 08:43:00,
2014-07-23 03:44:00,76.0,70.8,29.88,WNW,283,0.0,0.0,84,0.00,,---,0.00,VWS V14.01,2014-07-23 08:44:00,
2014-07-23 03:45:00,76.0,70.8,29.88,WNW,283,0.0,0.0,84,0.00,,---,0.00,VWS V14.01,2014-07-23 08:45:00,
2014-07-23 03:46:00,75.8,71.0,29.88,South,176,0.0,2.0,85,0.00,,---,0.00,VWS V14.01,2014-07-23 08:46:00,
2014-07-23 03:47:00,76.0,70.8,29.88,West,278,0.0,0.0,84,0.00,,---,0.00,VWS V14.01,2014-07-23 08:47:00,
2014-07-23 03:48:00,76.0,70.8,29.88,West,278,0.0,0.0,84,0.00,,---,0.00,VWS V14.01,2014-07-23 08:48:00,
2014-07-23 03:49:00,76.0,70.8,29.88,West,278,0.0,0.0,84,0.00,,---,0.00,VWS V14.01,2014-07-23 08:49:00,
2014-07-23 03:50:00,76.0,70.8,29.88,West,279,0.0,0.0,84,0.00,,---,0.00,VWS V14.01,2014-07-23 08:50:00,
2014-07-23 03:51:00,76.0,70.8,29.88,WNW,283,0.0,0.0,84,0.00,,---,0.00,VWS V14.01,2014-07-23 08:51:00,
2014-07-23 03:52:00,76.1,70.9,29.88,West,279,0.0,0.0,84,0.00,,---,0.00,VWS V14.01,2014-07-23 08:52:00,
2014-07-23 03:53:00,76.0,70.8,29.88,West,279,0.0,0.0,84,0.00,,---,0.00,VWS V14.01,2014-07-23 08:53:00,
2014-07-23 03:54:00,76.0,70.8,29.88,WSW,248,0.0,0.0,84,0.00,,---,0.00,VWS V14.01,2014-07-23 08:54:00,
2014-07-23 03:55:00,76.0,70.8,29.88,WSW,248,0.0,0.0,84,0.00,,---,0.00,VWS V14.01,2014-07-23 08:55:00,
2014-07-23 03:56:00,76.0,70.8,29.88,WNW,283,0.0,0.0,84,0.00,,---,0.00,VWS V14.01,2014-07-23 08:56:00,
2014-07-23 03:57:00,76.0,70.8,29.88,WSW,250,0.0,1.0,84,0.00,,---,0.00,VWS V14.01,2014-07-23 08:57:00,
2014-07-23 03:58:00,76.0,70.8,29.88,WSW,250,0.0,1.0,84,0.00,,---,0.00,VWS V14.01,2014-07-23 08:58:00,
2014-07-23 03:59:00,76.0,70.8,29.88,WSW,250,0.0,1.0,84,0.00,,---,0.00,VWS V14.01,2014-07-23 08:59:00,
2014-07-23 04:00:00,76.0,70.8,29.88,SSW,204,0.0,0.0,84,0.00,,---,0.00,VWS V14.01,2014-07-23 09:00:00,
2014-07-23 04:01:00,76.0,70.8,29.88,West,279,0.0,0.0,84,0.00,,---,0.00,VWS V14.01,2014-07-23 09:01:00,
2014-07-23 04:02:00,76.0,70.8,29.88,WSW,245,0.0,1.0,84,0.00,,---,0.00,VWS V14.01,2014-07-23 09:02:00,
2014-07-23 04:03:00,76.0,70.8,29.88,WNW,285,0.0,2.0,84,0.00,,---,0.00,VWS V14.01,2014-07-23 09:03:00,
2014-07-23 04:04:00,76.0,70.8,29.88,WNW,285,0.0,2.0,84,0.00,,---,0.00,VWS V14.01,2014-07-23 09:04:00,
2014-07-23 04:05:00,76.0,70.8,29.88,WNW,286,0.0,0.0,84,0.00,,---,0.00,VWS V14.01,2014-07-23 09:05:00,
2014-07-23 04:06:00,76.0,70.8,29.88,WSW,248,0.0,1.0,84,0.00,,---,0.00,VWS V14.01,2014-07-23 09:06:00,
2014-07-23 04:07:00,76.0,70.8,29.88,WNW,284,0.0,0.0,84,0.00,,---,0.00,VWS V14.01,2014-07-23 09:07:00,
2014-07-23 04:08:00,76.1,70.9,29.88,WNW,284,0.0,1.0,84,0.00,,---,0.00,VWS V14.01,2014-07-23 09:08:00,
2014-07-23 04:09:00,76.1,70.9,29.88,WNW,284,0.0,1.0,84,0.00,,---,0.00,VWS V14.01,2014-07-23 09:09:00,
2014-07-23 04:10:00,76.1,70.9,29.88,West,281,0.0,0.0,84,0.00,,---,0.00,VWS V14.01,2014-07-23 09:10:00,
2014-07-23 04:11:00,76.0,70.8,29.88,WSW,245,0.0,1.0,84,0.00,,---,0.00,VWS V14.01,2014-07-23 09:11:00,
2014-07-23 04:12:00,76.1,70.9,29.88,SSE,158,0.0,2.0,84,0.00,,---,0.00,VWS V14.01,2014-07-23 09:12:00,
2014-07-23 04:13:00,76.1,70.9,29.88,WNW,293,0.0,2.0,84,0.00,,---,0.00,VWS V14.01,2014-07-23 09:13:00,
2014-07-23 04:14:00,76.1,70.9,29.88,WNW,294,0.0,2.0,84,0.00,,---,0.00,VWS V14.01,2014-07-23 09:14:00,
2014-07-23 04:15:00,76.1,70.9,29.88,WNW,294,0.0,0.0,84,0.00,,---,0.00,VWS V14.01,2014-07-23 09:15:00,
2014-07-23 04:16:00,76.0,70.8,29.88,WNW,288,0.0,0.0,84,0.00,,---,0.00,VWS V14.01,2014-07-23 09:16:00,
2014-07-23 04:17:00,76.1,70.9,29.88,WNW,291,0.0,0.0,84,0.00,,---,0.00,VWS V14.01,2014-07-23 09:17:00,
2014-07-23 04:18:00,76.1,70.9,29.88,SSW,196,0.0,0.0,84,0.00,,---,0.00,VWS V14.01,2014-07-23 09:18:00,
2014-07-23 04:19:00,76.0,70.8,29.88,SSW,204,0.0,0.0,84,0.00,,---,0.00,VWS V14.01,2014-07-23 09:19:00,
2014-07-23 04:20:00,76.0,70.8,29.88,SW,214,0.0,0.0,84,0.00,,---,0.00,VWS V14.01,2014-07-23 09:20:00,
2014-07-23 04:21:00,76.1,70.9,29.88,SSE,160,2.0,2.0,84,0.00,,---,0.00,VWS V14.01,2014-07-23 09:21:00,
2014-07-23 04:22:00,76.0,70.8,29.88,West,270,0.0,0.0,84,0.00,,---,0.00,VWS V14.01,2014-07-23 09:22:00,
2014-07-23 04:23:00,76.0,70.8,29.88,West,270,0.0,0.0,84,0.00,,---,0.00,VWS V14.01,2014-07-23 09:23:00,
2014-07-23 04:24:00,76.0,70.8,29.88,West,270,0.0,0.0,84,0.00,,---,0.00,VWS V14.01,2014-07-23 09:24:00,
2014-07-23 04:25:00,76.0,70.8,29.88,WNW,288,0.0,1.0,84,0.00,,---,0.00,VWS V14.01,2014-07-23 09:25:00,
2014-07-23 04:26:00,76.1,70.9,29.88,WNW,291,0.0,0.0,84,0.00,,---,0.00,VWS V14.01,2014-07-23 09:26:00,
2014-07-23 04:27:00,76.0,70.8,29.88,South,180,0.0,1.0,84,0.00,,---,0.00,VWS V14.01,2014-07-23 09:27:00,
2014-07-23 04:28:00,76.0,70.8,29.88,South,180,0.0,1.0,84,0.00,,---,0.00,VWS V14.01,2014-07-23 09:28:00,
2014-07-23 04:29:00,76.0,70.8,29.88,WNW,297,0.0,1.0,84,0.00,,---,0.00,VWS V14.01,2014-07-23 09:29:00,
2014-07-23 04:30:00,76.0,70.8,29.88,SW,225,0.0,0.0,84,0.00,,---,0.00,VWS V14.01,2014-07-23 09:30:00,
2014-07-23 04:31:00,76.0,70.8,29.88,West,270,0.0,0.0,84,0.00,,---,0.00,VWS V14.01,2014-07-23 09:31:00,
2014-07-23 04:32:00,76.0,70.8,29.88,SSE,153,0.0,3.0,84,0.00,,---,0.00,VWS V14.01,2014-07-23 09:32:00,
2014-07-23 04:33:00,76.0,70.8,29.88,SSE,152,0.0,3.0,84,0.00,,---,0.00,VWS V14.01,2014-07-23 09:33:00,
2014-07-23 04:34:00,76.0,71.2,29.88,SSE,152,0.0,3.0,85,0.00,,---,0.00,VWS V14.01,2014-07-23 09:34:00,
2014-07-23 04:35:00,76.0,70.8,29.88,SSE,152,0.0,0.0,84,0.00,,---,0.00,VWS V14.01,2014-07-23 09:35:00,
2014-07-23 04:36:00,76.0,70.8,29.88,South,180,0.0,1.0,84,0.00,,---,0.00,VWS V14.01,2014-07-23 09:36:00,
2014-07-23 04:37:00,76.0,71.2,29.88,SSE,160,0.0,0.0,85,0.00,,---,0.00,VWS V14.01,2014-07-23 09:37:00,
2014-07-23 04:38:00,76.0,71.2,29.88,SSE,161,0.0,0.0,85,0.00,,---,0.00,VWS V14.01,2014-07-23 09:38:00,
2014-07-23 04:39:00,76.0,71.2,29.88,SSE,160,0.0,0.0,85,0.00,,---,0.00,VWS V14.01,2014-07-23 09:39:00,
2014-07-23 04:40:00,76.0,71.2,29.88,SSE,161,0.0,0.0,85,0.00,,---,0.00,VWS V14.01,2014-07-23 09:40:00,
2014-07-23 04:41:00,76.0,70.8,29.88,SSE,154,3.0,3.0,84,0.00,,---,0.00,VWS V14.01,2014-07-23 09:41:00,
2014-07-23 04:42:00,76.0,71.2,29.88,SSW,194,0.0,0.0,85,0.00,,---,0.00,VWS V14.01,2014-07-23 09:42:00,
2014-07-23 04:43:00,76.0,71.2,29.88,SSW,194,0.0,0.0,85,0.00,,---,0.00,VWS V14.01,2014-07-23 09:43:00,
2014-07-23 04:44:00,76.0,71.2,29.88,SSW,194,0.0,0.0,85,0.00,,---,0.00,VWS V14.01,2014-07-23 09:44:00,
2014-07-23 04:45:00,76.0,71.2,29.88,SSW,194,0.0,0.0,85,0.00,,---,0.00,VWS V14.01,2014-07-23 09:45:00,
2014-07-23 04:46:00,76.0,71.2,29.88,SSE,161,0.0,0.0,85,0.00,,---,0.00,VWS V14.01,2014-07-23 09:46:00,
2014-07-23 04:47:00,75.8,71.0,29.88,SSW,194,0.0,0.0,85,0.00,,---,0.00,VWS V14.01,2014-07-23 09:47:00,
2014-07-23 04:48:00,75.8,71.0,29.88,SSW,204,1.0,1.0,85,0.00,,---,0.00,VWS V14.01,2014-07-23 09:48:00,
2014-07-23 04:49:00,75.8,71.0,29.88,WNW,301,0.0,1.0,85,0.00,,---,0.00,VWS V14.01,2014-07-23 09:49:00,
2014-07-23 04:50:00,75.8,71.0,29.88,WNW,301,0.0,0.0,85,0.00,,---,0.00,VWS V14.01,2014-07-23 09:50:00,
2014-07-23 04:51:00,76.0,71.2,29.88,SSW,194,0.0,0.0,85,0.00,,---,0.00,VWS V14.01,2014-07-23 09:51:00,
2014-07-23 04:52:00,75.8,71.0,29.88,WNW,301,0.0,0.0,85,0.00,,---,0.00,VWS V14.01,2014-07-23 09:52:00,
2014-07-23 04:53:00,75.8,71.0,29.88,WNW,283,0.0,0.0,85,0.00,,---,0.00,VWS V14.01,2014-07-23 09:53:00,
2014-07-23 04:54:00,75.8,71.0,29.88,WNW,283,0.0,0.0,85,0.00,,---,0.00,VWS V14.01,2014-07-23 09:54:00,
2014-07-23 04:55:00,75.8,71.0,29.88,WNW,283,0.0,0.0,85,0.00,,---,0.00,VWS V14.01,2014-07-23 09:55:00,
2014-07-23 04:56:00,75.8,71.0,29.88,SSW,194,0.0,0.0,85,0.00,,---,0.00,VWS V14.01,2014-07-23 09:56:00,
2014-07-23 04:57:00,75.8,71.0,29.88,WNW,283,0.0,1.0,85,0.00,,---,0.00,VWS V14.01,2014-07-23 09:57:00,
2014-07-23 04:58:00,75.8,71.0,29.88,WNW,283,0.0,1.0,85,0.00,,---,0.00,VWS V14.01,2014-07-23 09:58:00,
2014-07-23 04:59:00,75.8,71.0,29.88,WNW,302,0.0,1.0,85,0.00,,---,0.00,VWS V14.01,2014-07-23 09:59:00,
2014-07-23 05:00:00,75.6,70.8,29.88,WNW,291,0.0,0.0,85,0.00,,---,0.00,VWS V14.01,2014-07-23 10:00:00,
2014-07-23 05:01:00,75.8,71.0,29.88,WNW,301,0.0,0.0,85,0.00,,---,0.00,VWS V14.01,2014-07-23 10:01:00,
2014-07-23 05:02:00,75.6,71.1,29.88,WNW,291,0.0,0.0,86,0.00,,---,0.00,VWS V14.01,2014-07-23 10:02:00,
2014-07-23 05:03:00,75.6,71.1,29.88,WNW,284,0.0,0.0,86,0.00,,---,0.00,VWS V14.01,2014-07-23 10:03:00,
2014-07-23 05:04:00,75.6,71.1,29.88,SW,224,0.0,0.0,86,0.00,,---,0.00,VWS V14.01,2014-07-23 10:04:00,
2014-07-23 05:05:00,75.6,71.1,29.88,SW,236,0.0,0.0,86,0.00,,---,0.00,VWS V14.01,2014-07-23 10:05:00,
2014-07-23 05:06:00,75.8,71.0,29.88,WNW,283,1.0,1.0,85,0.00,,---,0.00,VWS V14.01,2014-07-23 10:06:00,
2014-07-23 05:07:00,75.6,71.1,29.88,West,281,0.0,1.0,86,0.00,,---,0.00,VWS V14.01,2014-07-23 10:07:00,
2014-07-23 05:08:00,75.6,71.1,29.88,West,266,0.0,1.0,86,0.00,,---,0.00,VWS V14.01,2014-07-23 10:08:00,
2014-07-23 05:09:00,75.6,71.1,29.88,West,266,0.0,1.0,86,0.00,,---,0.00,VWS V14.01,2014-07-23 10:09:00,
2014-07-23 05:10:00,75.6,71.1,29.88,SW,224,0.0,0.0,86,0.00,,---,0.00,VWS V14.01,2014-07-23 10:10:00,
2014-07-23 05:11:00,75.6,71.1,29.88,WNW,291,0.0,0.0,86,0.00,,---,0.00,VWS V14.01,2014-07-23 10:11:00,
2014-07-23 05:12:00,75.4,70.9,29.88,SW,220,0.0,0.0,86,0.00,,---,0.00,VWS V14.01,2014-07-23 10:12:00,
2014-07-23 05:13:00,75.4,70.9,29.88,SW,220,0.0,0.0,86,0.00,,---,0.00,VWS V14.01,2014-07-23 10:13:00,
2014-07-23 05:14:00,75.4,70.9,29.88,SW,231,0.0,0.0,86,0.00,,---,0.00,VWS V14.01,2014-07-23 10:14:00,
2014-07-23 05:15:00,75.4,70.9,29.88,SW,231,0.0,0.0,86,0.00,,---,0.00,VWS V14.01,2014-07-23 10:15:00,
2014-07-23 05:16:00,75.6,71.1,29.88,West,280,0.0,1.0,86,0.00,,---,0.00,VWS V14.01,2014-07-23 10:16:00,
2014-07-23 05:17:00,75.4,70.9,29.88,WSW,251,0.0,0.0,86,0.00,,---,0.00,VWS V14.01,2014-07-23 10:17:00,
2014-07-23 05:18:00,75.4,70.9,29.88,West,268,0.0,0.0,86,0.00,,---,0.00,VWS V14.01,2014-07-23 10:18:00,
2014-07-23 05:19:00,75.4,70.9,29.88,West,268,0.0,0.0,86,0.00,,---,0.00,VWS V14.01,2014-07-23 10:19:00,
2014-07-23 05:20:00,75.4,70.9,29.88,WNW,292,0.0,0.0,86,0.00,,---,0.00,VWS V14.01,2014-07-23 10:20:00,
2014-07-23 05:21:00,75.4,70.9,29.88,SW,220,0.0,0.0,86,0.00,,---,0.00,VWS V14.01,2014-07-23 10:21:00,
2014-07-23 05:22:00,75.4,70.9,29.88,WNW,292,0.0,0.0,86,0.00,,---,0.00,VWS V14.01,2014-07-23 10:22:00,
2014-07-23 05:23:00,75.4,70.9,29.88,WNW,292,0.0,0.0,86,0.00,,---,0.00,VWS V14.01,2014-07-23 10:23:00,
2014-07-23 05:24:00,75.4,70.9,29.88,WNW,292,0.0,0.0,86,0.00,,---,0.00,VWS V14.01,2014-07-23 10:24:00,
2014-07-23 05:25:00,75.4,70.9,29.88,WNW,300,0.0,0.0,86,0.00,,---,0.00,VWS V14.01,2014-07-23 10:25:00,
2014-07-23 05:26:00,75.4,70.9,29.88,West,264,0.0,0.0,86,0.00,,---,0.00,VWS V14.01,2014-07-23 10:26:00,
2014-07-23 05:27:00,75.3,70.8,29.88,WNW,300,0.0,0.0,86,0.00,,---,0.00,VWS V14.01,2014-07-23 10:27:00,
2014-07-23 05:28:00,75.3,70.8,29.88,WNW,300,0.0,0.0,86,0.00,,---,0.00,VWS V14.01,2014-07-23 10:28:00,
2014-07-23 05:29:00,75.3,70.8,29.88,WNW,288,0.0,0.0,86,0.00,,---,0.00,VWS V14.01,2014-07-23 10:29:00,
2014-07-23 05:30:00,75.3,71.2,29.88,WNW,288,0.0,0.0,87,0.00,,---,0.00,VWS V14.01,2014-07-23 10:30:00,
2014-07-23 05:31:00,75.4,70.9,29.88,WNW,292,0.0,0.0,86,0.00,,---,0.00,VWS V14.01,2014-07-23 10:31:00,
2014-07-23 05:32:00,75.3,71.2,29.88,WNW,288,0.0,0.0,87,0.00,,---,0.00,VWS V14.01,2014-07-23 10:32:00,
2014-07-23 05:33:00,75.3,71.2,29.88,WNW,288,0.0,0.0,87,0.00,,---,0.00,VWS V14.01,2014-07-23 10:33:00,
2014-07-23 05:34:00,75.1,71.0,29.88,WNW,288,0.0,0.0,87,0.00,,---,0.00,VWS V14.01,2014-07-23 10:34:00,
2014-07-23 05:35:00,75.1,71.0,29.88,WNW,288,0.0,0.0,87,0.00,,---,0.00,VWS V14.01,2014-07-23 10:35:00,
2014-07-23 05:36:00,75.3,70.8,29.88,WNW,300,0.0,0.0,86,0.00,,---,0.00,VWS V14.01,2014-07-23 10:36:00,
2014-07-23 05:37:00,75.1,71.0,29.88,WNW,288,0.0,0.0,87,0.00,,---,0.00,VWS V14.01,2014-07-23 10:37:00,
2014-07-23 05:38:00,75.1,71.0,29.88,WNW,288,0.0,0.0,87,0.00,,---,0.00,VWS V14.01,2014-07-23 10:38:00,
2014-07-23 05:39:00,75.1,71.0,29.88,WNW,288,0.0,0.0,87,0.00,,---,0.00,VWS V14.01,2014-07-23 10:39:00,
2014-07-23 05:40:00,75.1,71.0,29.88,WNW,288,0.0,0.0,87,0.00,,---,0.00,VWS V14.01,2014-07-23 10:40:00,
2014-07-23 05:41:00,75.3,71.2,29.88,WNW,288,0.0,0.0,87,0.00,,---,0.00,VWS V14.01,2014-07-23 10:41:00,
2014-07-23 05:42:00,75.1,71.0,29.88,WNW,288,0.0,0.0,87,0.00,,---,0.00,VWS V14.01,2014-07-23 10:42:00,
2014-07-23 05:43:00,75.1,71.0,29.88,WNW,288,0.0,0.0,87,0.00,,---,0.00,VWS V14.01,2014-07-23 10:43:00,
2014-07-23 05:44:00,75.1,71.0,29.88,WNW,288,0.0,0.0,87,0.00,,---,0.00,VWS V14.01,2014-07-23 10:44:00,
2014-07-23 05:45:00,75.1,71.0,29.88,WNW,288,0.0,0.0,87,0.00,,---,0.00,VWS V14.01,2014-07-23 10:45:00,
2014-07-23 05:46:00,75.1,71.0,29.88,WNW,288,0.0,0.0,87,0.00,,---,0.00,VWS V14.01,2014-07-23 10:46:00,
2014-07-23 05:47:00,75.1,71.0,29.88,WNW,288,0.0,0.0,87,0.00,,---,0.00,VWS V14.01,2014-07-23 10:47:00,
2014-07-23 05:48:00,75.1,71.0,29.88,WNW,288,0.0,0.0,87,0.00,,---,0.00,VWS V14.01,2014-07-23 10:48:00,
2014-07-23 05:49:00,75.1,71.3,29.88,WNW,288,0.0,0.0,88,0.00,,---,0.00,VWS V14.01,2014-07-23 10:49:00,
2014-07-23 05:50:00,74.9,71.1,29.88,WNW,288,0.0,0.0,88,0.00,,---,0.00,VWS V14.01,2014-07-23 10:50:00,
2014-07-23 05:51:00,75.1,71.0,29.88,WNW,288,0.0,0.0,87,0.00,,---,0.00,VWS V14.01,2014-07-23 10:51:00,
2014-07-23 05:52:00,74.9,71.1,29.88,WNW,288,0.0,0.0,88,0.00,,---,0.00,VWS V14.01,2014-07-23 10:52:00,
2014-07-23 05:53:00,74.9,71.1,29.88,WNW,288,0.0,0.0,88,0.00,,---,0.00,VWS V14.01,2014-07-23 10:53:00,
2014-07-23 05:54:00,74.9,71.1,29.88,WNW,288,0.0,0.0,88,0.00,,---,0.00,VWS V14.01,2014-07-23 10:54:00,
2014-07-23 05:55:00,74.9,71.1,29.88,WNW,288,0.0,0.0,88,0.00,,---,0.00,VWS V14.01,2014-07-23 10:55:00,
2014-07-23 05:56:00,75.1,71.0,29.88,WNW,288,0.0,0.0,87,0.00,,---,0.00,VWS V14.01,2014-07-23 10:56:00,
2014-07-23 05:57:00,74.7,70.9,29.88,WNW,288,0.0,0.0,88,0.00,,---,0.00,VWS V14.01,2014-07-23 10:57:00,
2014-07-23 05:58:00,74.7,70.9,29.88,WNW,288,0.0,0.0,88,0.00,,---,0.00,VWS V14.01,2014-07-23 10:58:00,
2014-07-23 05:59:00,74.7,70.9,29.87,WNW,288,0.0,0.0,88,0.00,,---,0.00,VWS V14.01,2014-07-23 10:59:00,
2014-07-23 06:00:00,74.7,70.9,29.87,WNW,288,0.0,0.0,88,0.00,,---,0.00,VWS V14.01,2014-07-23 11:00:00,
2014-07-23 06:01:00,74.9,71.1,29.88,WNW,288,0.0,0.0,88,0.00,,---,0.00,VWS V14.01,2014-07-23 11:01:00,
2014-07-23 06:02:00,74.7,71.2,29.87,WNW,288,0.0,0.0,89,0.00,,---,0.00,VWS V14.01,2014-07-23 11:02:00,
2014-07-23 06:03:00,74.7,71.2,29.87,WNW,287,0.0,0.0,89,0.00,,---,0.00,VWS V14.01,2014-07-23 11:03:00,
2014-07-23 06:04:00,74.6,71.2,29.87,West,276,3.0,3.0,89,0.00,,---,0.00,VWS V14.01,2014-07-23 11:04:00,
2014-07-23 06:05:00,74.6,71.2,29.87,West,266,0.0,0.0,89,0.00,,---,0.00,VWS V14.01,2014-07-23 11:05:00,
2014-07-23 06:06:00,74.7,70.9,29.88,WNW,288,0.0,0.0,88,0.00,,---,0.00,VWS V14.01,2014-07-23 11:06:00,
2014-07-23 06:07:00,74.6,71.2,29.87,West,266,0.0,0.0,89,0.00,,---,0.00,VWS V14.01,2014-07-23 11:07:00,
2014-07-23 06:08:00,74.6,71.2,29.87,West,279,3.0,3.0,89,0.00,,---,0.00,VWS V14.01,2014-07-23 11:08:00,
2014-07-23 06:09:00,74.7,71.2,29.87,WNW,285,0.0,4.0,89,0.00,,---,0.00,VWS V14.01,2014-07-23 11:09:00,
2014-07-23 06:10:00,74.7,71.2,29.87,WNW,285,0.0,0.0,89,0.00,,---,0.00,VWS V14.01,2014-07-23 11:10:00,
2014-07-23 06:11:00,74.7,71.2,29.87,WNW,288,0.0,0.0,89,0.00,,---,0.00,VWS V14.01,2014-07-23 11:11:00,
2014-07-23 06:12:00,74.7,71.2,29.87,West,259,0.0,1.0,89,0.00,,---,0.00,VWS V14.01,2014-07-23 11:12:00,
2014-07-23 06:13:00,74.7,71.2,29.87,West,259,1.0,1.0,89,0.00,,---,0.00,VWS V14.01,2014-07-23 11:13:00,
2014-07-23 06:14:00,74.7,71.2,29.87,West,266,0.0,1.0,89,0.00,,---,0.00,VWS V14.01,2014-07-23 11:14:00,
2014-07-23 06:15:00,74.7,71.2,29.87,West,266,1.0,1.0,89,0.00,,---,0.00,VWS V14.01,2014-07-23 11:15:00,
2014-07-23 06:16:00,74.6,71.2,29.87,West,266,0.0,0.0,89,0.00,,---,0.00,VWS V14.01,2014-07-23 11:16:00,
2014-07-23 06:17:00,74.9,71.4,29.87,WNW,282,0.0,1.0,89,0.00,,---,0.00,VWS V14.01,2014-07-23 11:17:00,
2014-07-23 06:18:00,74.9,71.4,29.87,WNW,282,0.0,1.0,89,0.00,,---,0.00,VWS V14.01,2014-07-23 11:18:00,
2014-07-23 06:19:00,74.9,71.4,29.87,West,275,1.0,1.0,89,0.00,,---,0.00,VWS V14.01,2014-07-23 11:19:00,
2014-07-23 06:20:00,74.9,71.4,29.87,West,266,0.0,0.0,89,0.00,,---,0.00,VWS V14.01,2014-07-23 11:20:00,
2014-07-23 06:21:00,74.7,71.2,29.87,West,259,0.0,1.0,89,0.00,,---,0.00,VWS V14.01,2014-07-23 11:21:00,
2014-07-23 06:22:00,75.1,71.6,29.87,West,266,0.0,0.0,89,0.00,,---,0.00,VWS V14.01,2014-07-23 11:22:00,
2014-07-23 06:23:00,75.1,71.6,29.87,SW,219,0.0,0.0,89,0.00,,---,0.00,VWS V14.01,2014-07-23 11:23:00,
2014-07-23 06:24:00,75.1,71.6,29.87,SW,219,0.0,0.0,89,0.00,,---,0.00,VWS V14.01,2014-07-23 11:24:00,
2014-07-23 06:25:00,75.1,71.6,29.87,SW,219,0.0,0.0,89,0.00,,---,0.00,VWS V14.01,2014-07-23 11:25:00,
2014-07-23 06:26:00,74.9,71.4,29.87,West,272,0.0,1.0,89,0.00,,---,0.00,VWS V14.01,2014-07-23 11:26:00,
2014-07-23 06:27:00,75.1,71.6,29.87,SW,219,0.0,0.0,89,0.00,,---,0.00,VWS V14.01,2014-07-23 11:27:00,
2014-07-23 06:28:00,75.1,71.6,29.87,SW,219,0.0,2.0,89,0.00,,---,0.00,VWS V14.01,2014-07-23 11:28:00,
2014-07-23 06:29:00,75.1,71.6,29.87,SW,219,0.0,2.0,89,0.00,,---,0.00,VWS V14.01,2014-07-23 11:29:00,
2014-07-23 06:30:00,75.3,71.8,29.87,SW,219,0.0,0.0,89,0.00,,---,0.00,VWS V14.01,2014-07-23 11:30:00,
2014-07-23 06:31:00,75.1,71.6,29.87,West,266,0.0,0.0,89,0.00,,---,0.00,VWS V14.01,2014-07-23 11:31:00,
2014-07-23 06:32:00,75.3,71.8,29.87,WSW,237,0.0,0.0,89,0.00,,---,0.00,VWS V14.01,2014-07-23 11:32:00,
2014-07-23 06:33:00,75.3,71.8,29.87,WSW,237,2.0,2.0,89,0.00,,---,0.00,VWS V14.01,2014-07-23 11:33:00,
2014-07-23 06:34:00,75.3,71.8,29.87,WSW,237,0.0,2.0,89,0.00,,---,0.00,VWS V14.01,2014-07-23 11:34:00,
2014-07-23 06:35:00,75.3,71.8,29.87,WSW,237,0.0,0.0,89,0.00,,---,0.00,VWS V14.01,2014-07-23 11:35:00,
2014-07-23 06:36:00,75.1,71.6,29.87,SW,219,0.0,0.0,89,0.00,,---,0.00,VWS V14.01,2014-07-23 11:36:00,
2014-07-23 06:37:00,75.3,71.8,29.87,South,174,0.0,2.0,89,0.00,,---,0.00,VWS V14.01,2014-07-23 11:37:00,
2014-07-23 06:38:00,75.3,71.8,29.87,South,174,0.0,2.0,89,0.00,,---,0.00,VWS V14.01,2014-07-23 11:38:00,
2014-07-23 06:39:00,75.3,71.8,29.87,South,174,0.0,2.0,89,0.00,,---,0.00,VWS V14.01,2014-07-23 11:39:00,
2014-07-23 06:40:00,75.3,71.8,29.87,South,174,0.0,0.0,89,0.00,,---,0.00,VWS V14.01,2014-07-23 11:40:00,
2014-07-23 06:41:00,75.3,71.8,29.87,WSW,237,0.0,0.0,89,0.00,,---,0.00,VWS V14.01,2014-07-23 11:41:00,
2014-07-23 06:42:00,75.3,71.8,29.87,SSE,167,0.0,0.0,89,0.00,,---,0.00,VWS V14.01,2014-07-23 11:42:00,
2014-07-23 06:43:00,75.3,71.8,29.87,SSE,167,0.0,0.0,89,0.00,,---,0.00,VWS V14.01,2014-07-23 11:43:00,
2014-07-23 06:44:00,75.3,71.8,29.88,South,171,0.0,0.0,89,0.00,,---,0.00,VWS V14.01,2014-07-23 11:44:00,
2014-07-23 06:45:00,75.3,71.8,29.88,South,179,0.0,0.0,89,0.00,,---,0.00,VWS V14.01,2014-07-23 11:45:00,
2014-07-23 06:46:00,75.3,71.8,29.87,South,174,0.0,2.0,89,0.00,,---,0.00,VWS V14.01,2014-07-23 11:46:00,
2014-07-23 06:47:00,75.3,71.8,29.88,South,186,0.0,0.0,89,0.00,,---,0.00,VWS V14.01,2014-07-23 11:47:00,
2014-07-23 06:48:00,75.4,71.9,29.88,South,186,0.0,0.0,89,0.00,,---,0.00,VWS V14.01,2014-07-23 11:48:00,
2014-07-23 06:49:00,75.4,71.9,29.88,South,186,0.0,0.0,89,0.00,,---,0.00,VWS V14.01,2014-07-23 11:49:00,
2014-07-23 06:50:00,75.4,71.9,29.88,South,186,0.0,0.0,89,0.00,,---,0.00,VWS V14.01,2014-07-23 11:50:00,
2014-07-23 06:51:00,75.3,71.8,29.87,SSE,167,0.0,0.0,89,0.00,,---,0.00,VWS V14.01,2014-07-23 11:51:00,
2014-07-23 06:52:00,75.4,71.9,29.88,South,186,0.0,0.0,89,0.00,,---,0.00,VWS V14.01,2014-07-23 11:52:00,
2014-07-23 06:53:00,75.4,71.9,29.88,South,186,0.0,0.0,89,0.00,,---,0.00,VWS V14.01,2014-07-23 11:53:00,
2014-07-23 06:54:00,75.6,72.1,29.88,South,186,0.0,0.0,89,0.00,,---,0.00,VWS V14.01,2014-07-23 11:54:00,
2014-07-23 06:55:00,75.6,72.1,29.88,South,186,0.0,0.0,89,0.00,,---,0.00,VWS V14.01,2014-07-23 11:55:00,
2014-07-23 06:56:00,75.3,71.8,29.88,South,186,0.0,0.0,89,0.00,,---,0.00,VWS V14.01,2014-07-23 11:56:00,
2014-07-23 06:57:00,75.6,72.1,29.88,South,183,0.0,0.0,89,0.00,,---,0.00,VWS V14.01,2014-07-23 11:57:00,
2014-07-23 06:58:00,75.6,72.1,29.88,South,183,0.0,0.0,89,0.00,,---,0.00,VWS V14.01,2014-07-23 11:58:00,
2014-07-23 06:59:00,75.6,72.1,29.90,South,183,0.0,0.0,89,0.00,,---,0.00,VWS V14.01,2014-07-23 11:59:00,
2014-07-23 07:00:00,75.6,72.1,29.90,South,183,0.0,0.0,89,0.00,,---,0.00,VWS V14.01,2014-07-23 12:00:00,
2014-07-23 07:01:00,75.4,71.9,29.88,South,186,0.0,0.0,89,0.00,,---,0.00,VWS V14.01,2014-07-23 12:01:00,
2014-07-23 07:02:00,75.8,72.3,29.90,South,183,0.0,0.0,89,0.00,,---,0.00,VWS V14.01,2014-07-23 12:02:00,
2014-07-23 07:03:00,75.8,72.3,29.90,South,183,0.0,0.0,89,0.00,,---,0.00,VWS V14.01,2014-07-23 12:03:00,
2014-07-23 07:04:00,75.8,72.3,29.90,South,183,0.0,0.0,89,0.00,,---,0.00,VWS V14.01,2014-07-23 12:04:00,
2014-07-23 07:05:00,76.0,72.5,29.90,South,183,0.0,0.0,89,0.00,,---,0.00,VWS V14.01,2014-07-23 12:05:00,
2014-07-23 07:06:00,75.6,72.1,29.88,South,183,0.0,0.0,89,0.00,,---,0.00,VWS V14.01,2014-07-23 12:06:00,
2014-07-23 07:07:00,76.0,72.5,29.90,South,183,0.0,0.0,89,0.00,,---,0.00,VWS V14.01,2014-07-23 12:07:00,
2014-07-23 07:08:00,76.0,72.5,29.90,South,183,0.0,0.0,89,0.00,,---,0.00,VWS V14.01,2014-07-23 12:08:00,
2014-07-23 07:09:00,76.1,73.0,29.90,South,183,0.0,0.0,90,0.00,,---,0.00,VWS V14.01,2014-07-23 12:09:00,
2014-07-23 07:10:00,76.1,72.6,29.90,South,183,0.0,0.0,89,0.00,,---,0.00,VWS V14.01,2014-07-23 12:10:00,
2014-07-23 07:11:00,75.8,72.3,29.90,South,183,0.0,0.0,89,0.00,,---,0.00,VWS V14.01,2014-07-23 12:11:00,
2014-07-23 07:12:00,76.1,73.0,29.90,South,183,0.0,0.0,90,0.00,,---,0.00,VWS V14.01,2014-07-23 12:12:00,
2014-07-23 07:13:00,76.3,73.2,29.90,South,183,0.0,0.0,90,0.00,,---,0.00,VWS V14.01,2014-07-23 12:13:00,
2014-07-23 07:14:00,76.3,73.2,29.91,South,183,0.0,0.0,90,0.00,,---,0.00,VWS V14.01,2014-07-23 12:14:00,
2014-07-23 07:15:00,76.3,73.2,29.91,South,183,0.0,0.0,90,0.00,,---,0.00,VWS V14.01,2014-07-23 12:15:00,
2014-07-23 07:16:00,76.0,72.5,29.90,South,183,0.0,0.0,89,0.00,,---,0.00,VWS V14.01,2014-07-23 12:16:00,
2014-07-23 07:17:00,76.3,73.2,29.91,South,183,0.0,0.0,90,0.00,,---,0.00,VWS V14.01,2014-07-23 12:17:00,
2014-07-23 07:18:00,76.5,73.3,29.91,South,183,0.0,0.0,90,0.00,,---,0.00,VWS V14.01,2014-07-23 12:18:00,
2014-07-23 07:19:00,76.5,73.3,29.91,South,183,0.0,0.0,90,0.00,,---,0.00,VWS V14.01,2014-07-23 12:19:00,
2014-07-23 07:20:00,76.5,73.3,29.91,South,183,0.0,0.0,90,0.00,,---,0.00,VWS V14.01,2014-07-23 12:20:00,
2014-07-23 07:21:00,76.1,73.0,29.90,South,183,0.0,0.0,90,0.00,,---,0.00,VWS V14.01,2014-07-23 12:21:00,
2014-07-23 07:22:00,76.7,73.6,29.91,South,183,0.0,0.0,90,0.00,,---,0.00,VWS V14.01,2014-07-23 12:22:00,
2014-07-23 07:23:00,76.7,73.6,29.91,South,183,0.0,0.0,90,0.00,,---,0.00,VWS V14.01,2014-07-23 12:23:00,
2014-07-23 07:24:00,76.7,73.6,29.91,South,183,0.0,0.0,90,0.00,,---,0.00,VWS V14.01,2014-07-23 12:24:00,
2014-07-23 07:25:00,76.7,73.6,29.91,South,183,0.0,0.0,90,0.00,,---,0.00,VWS V14.01,2014-07-23 12:25:00,
2014-07-23 07:26:00,76.3,73.2,29.91,South,183,0.0,0.0,90,0.00,,---,0.00,VWS V14.01,2014-07-23 12:26:00,
2014-07-23 07:27:00,76.8,73.3,29.91,South,183,0.0,0.0,89,0.00,,---,0.00,VWS V14.01,2014-07-23 12:27:00,
2014-07-23 07:28:00,76.8,73.3,29.91,South,183,0.0,0.0,89,0.00,,---,0.00,VWS V14.01,2014-07-23 12:28:00,
2014-07-23 07:29:00,76.8,73.3,29.91,South,183,0.0,0.0,89,0.00,,---,0.00,VWS V14.01,2014-07-23 12:29:00,
2014-07-23 07:30:00,77.0,73.5,29.91,South,183,0.0,0.0,89,0.00,,---,0.00,VWS V14.01,2014-07-23 12:30:00,
2014-07-23 07:31:00,76.5,73.3,29.91,South,183,0.0,0.0,90,0.00,,---,0.00,VWS V14.01,2014-07-23 12:31:00,
2014-07-23 07:32:00,77.0,73.5,29.91,South,183,0.0,0.0,89,0.00,,---,0.00,VWS V14.01,2014-07-23 12:32:00,
2014-07-23 07:33:00,77.0,73.5,29.91,South,183,0.0,0.0,89,0.00,,---,0.00,VWS V14.01,2014-07-23 12:33:00,
2014-07-23 07:34:00,77.2,73.7,29.91,South,183,0.0,0.0,89,0.00,,---,0.00,VWS V14.01,2014-07-23 12:34:00,
2014-07-23 07:35:00,77.2,73.7,29.91,South,183,0.0,0.0,89,0.00,,---,0.00,VWS V14.01,2014-07-23 12:35:00,
2014-07-23 07:36:00,76.8,73.3,29.91,South,183,0.0,0.0,89,0.00,,---,0.00,VWS V14.01,2014-07-23 12:36:00,
2014-07-23 07:37:00,77.4,73.9,29.91,South,183,0.0,0.0,89,0.00,,---,0.00,VWS V14.01,2014-07-23 12:37:00,
2014-07-23 07:38:00,77.6,74.1,29.91,South,183,0.0,0.0,89,0.00,,---,0.00,VWS V14.01,2014-07-23 12:38:00,
2014-07-23 07:39:00,77.6,74.1,29.91,South,183,0.0,0.0,89,0.00,,---,0.00,VWS V14.01,2014-07-23 12:39:00,
2014-07-23 07:40:00,77.6,74.1,29.91,South,183,0.0,0.0,89,0.00,,---,0.00,VWS V14.01,2014-07-23 12:40:00,
2014-07-23 07:41:00,77.0,73.5,29.91,South,183,0.0,0.0,89,0.00,,---,0.00,VWS V14.01,2014-07-23 12:41:00,
2014-07-23 07:42:00,77.7,74.2,29.91,South,183,0.0,0.0,89,0.00,,---,0.00,VWS V14.01,2014-07-23 12:42:00,
2014-07-23 07:43:00,77.9,74.4,29.91,South,183,0.0,0.0,89,0.00,,---,0.00,VWS V14.01,2014-07-23 12:43:00,
2014-07-23 07:44:00,77.9,74.4,29.91,South,183,0.0,0.0,89,0.00,,---,0.00,VWS V14.01,2014-07-23 12:44:00,
2014-07-23 07:45:00,77.9,74.4,29.91,South,183,0.0,0.0,89,0.00,,---,0.00,VWS V14.01,2014-07-23 12:45:00,
2014-07-23 07:46:00,77.4,73.9,29.91,South,183,0.0,0.0,89,0.00,,---,0.00,VWS V14.01,2014-07-23 12:46:00,
2014-07-23 07:47:00,78.1,74.6,29.91,South,183,0.0,0.0,89,0.00,,---,0.00,VWS V14.01,2014-07-23 12:47:00,
2014-07-23 07:48:00,78.1,74.6,29.91,South,183,0.0,0.0,89,0.00,,---,0.00,VWS V14.01,2014-07-23 12:48:00,
2014-07-23 07:49:00,78.1,74.3,29.91,South,183,0.0,0.0,88,0.00,,---,0.00,VWS V14.01,2014-07-23 12:49:00,
2014-07-23 07:50:00,78.1,74.6,29.91,South,183,0.0,0.0,89,0.00,,---,0.00,VWS V14.01,2014-07-23 12:50:00,
2014-07-23 07:51:00,77.7,74.2,29.91,South,183,0.0,0.0,89,0.00,,---,0.00,VWS V14.01,2014-07-23 12:51:00,
2014-07-23 07:52:00,78.3,74.8,29.91,South,184,0.0,0.0,89,0.00,,---,0.00,VWS V14.01,2014-07-23 12:52:00,
2014-07-23 07:53:00,78.3,74.8,29.91,South,184,0.0,0.0,89,0.00,,---,0.00,VWS V14.01,2014-07-23 12:53:00,
2014-07-23 07:54:00,78.3,74.5,29.91,South,184,0.0,0.0,88,0.00,,---,0.00,VWS V14.01,2014-07-23 12:54:00,
2014-07-23 07:55:00,78.5,74.7,29.91,South,184,0.0,0.0,88,0.00,,---,0.00,VWS V14.01,2014-07-23 12:55:00,
2014-07-23 07:56:00,78.1,74.6,29.91,South,183,0.0,0.0,89,0.00,,---,0.00,VWS V14.01,2014-07-23 12:56:00,
2014-07-23 07:57:00,78.5,75.0,29.91,South,184,0.0,0.0,89,0.00,,---,0.00,VWS V14.01,2014-07-23 12:57:00,
2014-07-23 07:58:00,78.6,74.8,29.91,South,184,0.0,0.0,88,0.00,,---,0.00,VWS V14.01,2014-07-23 12:58:00,
2014-07-23 07:59:00,78.6,75.1,29.91,South,184,0.0,0.0,89,0.00,,---,0.00,VWS V14.01,2014-07-23 12:59:00,
2014-07-23 08:00:00,78.6,75.1,29.91,South,184,0.0,0.0,89,0.00,,---,0.00,VWS V14.01,2014-07-23 13:00:00,
2014-07-23 08:01:00,78.3,74.8,29.91,South,184,0.0,0.0,89,0.00,,---,0.00,VWS V14.01,2014-07-23 13:01:00,
2014-07-23 08:02:00,78.8,74.9,29.91,South,184,0.0,0.0,88,0.00,,---,0.00,VWS V14.01,2014-07-23 13:02:00,
2014-07-23 08:03:00,79.0,75.2,29.91,South,184,0.0,0.0,88,0.00,,---,0.00,VWS V14.01,2014-07-23 13:03:00,
2014-07-23 08:04:00,79.0,75.2,29.91,South,184,0.0,0.0,88,0.00,,---,0.00,VWS V14.01,2014-07-23 13:04:00,
2014-07-23 08:05:00,79.2,75.3,29.91,SW,221,0.0,1.0,88,0.00,,---,0.00,VWS V14.01,2014-07-23 13:05:00,
2014-07-23 08:06:00,78.5,75.0,29.91,South,184,0.0,0.0,89,0.00,,---,0.00,VWS V14.01,2014-07-23 13:06:00,
2014-07-23 08:07:00,79.2,75.3,29.91,SW,229,0.0,1.0,88,0.00,,---,0.00,VWS V14.01,2014-07-23 13:07:00,
2014-07-23 08:08:00,79.4,75.5,29.91,SW,229,0.0,1.0,88,0.00,,---,0.00,VWS V14.01,2014-07-23 13:08:00,
2014-07-23 08:09:00,79.4,75.5,29.91,SW,229,0.0,1.0,88,0.00,,---,0.00,VWS V14.01,2014-07-23 13:09:00,
2014-07-23 08:10:00,79.4,75.2,29.91,North,353,0.0,3.0,87,0.00,,---,0.00,VWS V14.01,2014-07-23 13:10:00,
2014-07-23 08:11:00,78.8,75.3,29.91,South,184,0.0,0.0,89,0.00,,---,0.00,VWS V14.01,2014-07-23 13:11:00,
2014-07-23 08:12:00,79.6,75.4,29.91,NW,321,3.0,3.0,87,0.00,,---,0.00,VWS V14.01,2014-07-23 13:12:00,
2014-07-23 08:13:00,79.8,75.6,29.91,NNW,344,1.0,3.0,87,0.00,,---,0.00,VWS V14.01,2014-07-23 13:13:00,
2014-07-23 08:14:00,79.9,75.7,29.92,NNW,338,0.0,3.0,87,0.00,,---,0.00,VWS V14.01,2014-07-23 13:14:00,
2014-07-23 08:15:00,79.9,75.7,29.92,NNW,338,0.0,0.0,87,0.00,,---,0.00,VWS V14.01,2014-07-23 13:15:00,
2014-07-23 08:16:00,79.2,75.3,29.91,SW,229,0.0,1.0,88,0.00,,---,0.00,VWS V14.01,2014-07-23 13:16:00,
2014-07-23 08:17:00,80.1,75.5,29.92,North,0,3.0,4.0,86,0.00,,---,0.00,VWS V14.01,2014-07-23 13:17:00,
2014-07-23 08:18:00,80.1,75.5,29.92,North,0,0.0,4.0,86,0.00,,---,0.00,VWS V14.01,2014-07-23 13:18:00,
2014-07-23 08:19:00,80.1,75.2,29.92,NW,314,3.0,4.0,85,0.00,,---,0.00,VWS V14.01,2014-07-23 13:19:00,
2014-07-23 08:20:00,80.1,75.2,29.92,NW,313,0.0,0.0,85,0.00,,---,0.00,VWS V14.01,2014-07-23 13:20:00,
2014-07-23 08:21:00,79.6,75.4,29.91,North,358,2.0,3.0,87,0.00,,---,0.00,VWS V14.01,2014-07-23 13:21:00,
2014-07-23 08:22:00,80.3,75.4,29.92,NNW,336,1.0,4.0,85,0.00,,---,0.00,VWS V14.01,2014-07-23 13:22:00,
2014-07-23 08:23:00,80.3,75.4,29.92,NNW,332,0.0,4.0,85,0.00,,---,0.00,VWS V14.01,2014-07-23 13:23:00,
2014-07-23 08:24:00,80.3,75.4,29.92,NNW,332,0.0,4.0,85,0.00,,---,0.00,VWS V14.01,2014-07-23 13:24:00,
2014-07-23 08:25:00,80.3,75.4,29.92,WNW,287,0.0,0.0,85,0.00,,---,0.00,VWS V14.01,2014-07-23 13:25:00,
2014-07-23 08:26:00,80.1,75.5,29.92,West,268,1.0,4.0,86,0.00,,---,0.00,VWS V14.01,2014-07-23 13:26:00,
2014-07-23 08:27:00,80.5,75.9,29.92,North,352,4.0,4.0,86,0.00,,---,0.00,VWS V14.01,2014-07-23 13:27:00,
2014-07-23 08:28:00,80.5,75.6,29.92,NNW,330,0.0,4.0,85,0.00,,---,0.00,VWS V14.01,2014-07-23 13:28:00,
2014-07-23 08:29:00,80.5,75.6,29.91,NNW,330,0.0,4.0,85,0.00,,---,0.00,VWS V14.01,2014-07-23 13:29:00,
2014-07-23 08:30:00,80.5,75.6,29.91,SW,230,0.0,0.0,85,0.00,,---,0.00,VWS V14.01,2014-07-23 13:30:00,
2014-07-23 08:31:00,80.3,75.4,29.92,SSW,210,0.0,4.0,85,0.00,,---,0.00,VWS V14.01,2014-07-23 13:31:00,
2014-07-23 08:32:00,80.5,75.6,29.91,WSW,243,0.0,4.0,85,0.00,,---,0.00,VWS V14.01,2014-07-23 13:32:00,
2014-07-23 08:33:00,80.7,75.8,29.91,SSW,209,2.0,4.0,85,0.00,,---,0.00,VWS V14.01,2014-07-23 13:33:00,
2014-07-23 08:34:00,80.7,75.4,29.91,NW,307,0.0,4.0,84,0.00,,---,0.00,VWS V14.01,2014-07-23 13:34:00,
2014-07-23 08:35:00,80.7,75.4,29.91,NNW,340,0.0,0.0,84,0.00,,---,0.00,VWS V14.01,2014-07-23 13:35:00,
2014-07-23 08:36:00,80.3,75.4,29.92,NNW,345,3.0,4.0,85,0.00,,---,0.00,VWS V14.01,2014-07-23 13:36:00,
2014-07-23 08:37:00,80.9,76.0,29.91,NNW,342,1.0,1.0,85,0.00,,---,0.00,VWS V14.01,2014-07-23 13:37:00,
2014-07-23 08:38:00,80.9,76.0,29.91,NNW,342,0.0,1.0,85,0.00,,---,0.00,VWS V14.01,2014-07-23 13:38:00,
2014-07-23 08:39:00,80.9,76.0,29.91,WNW,303,4.0,4.0,85,0.00,,---,0.00,VWS V14.01,2014-07-23 13:39:00,
2014-07-23 08:40:00,81.1,75.8,29.91,WSW,253,4.0,4.0,84,0.00,,---,0.00,VWS V14.01,2014-07-23 13:40:00,
2014-07-23 08:41:00,80.5,75.6,29.91,WSW,243,0.0,4.0,85,0.00,,---,0.00,VWS V14.01,2014-07-23 13:41:00,
2014-07-23 08:42:00,81.1,75.8,29.91,WSW,250,0.0,4.0,84,0.00,,---,0.00,VWS V14.01,2014-07-23 13:42:00,
2014-07-23 08:43:00,81.1,75.8,29.91,NNE,14,0.0,4.0,84,0.00,,---,0.00,VWS V14.01,2014-07-23 13:43:00,
2014-07-23 08:44:00,81.1,75.8,29.91,North,0,1.0,5.0,84,0.00,,---,0.00,VWS V14.01,2014-07-23 13:44:00,
2014-07-23 08:45:00,81.1,75.8,29.91,NNW,337,0.0,0.0,84,0.00,,---,0.00,VWS V14.01,2014-07-23 13:45:00,
2014-07-23 08:46:00,80.9,76.0,29.91,NNW,342,0.0,1.0,85,0.00,,---,0.00,VWS V14.01,2014-07-23 13:46:00,
2014-07-23 08:47:00,81.2,75.9,29.91,North,357,3.0,5.0,84,0.00,,---,0.00,VWS V14.01,2014-07-23 13:47:00,
2014-07-23 08:48:00,81.2,75.9,29.91,North,0,2.0,5.0,84,0.00,,---,0.00,VWS V14.01,2014-07-23 13:48:00,
2014-07-23 08:49:00,81.2,75.9,29.91,NNW,347,0.0,5.0,84,0.00,,---,0.00,VWS V14.01,2014-07-23 13:49:00,
2014-07-23 08:50:00,81.2,75.6,29.91,NNW,328,2.0,3.0,83,0.00,,---,0.00,VWS V14.01,2014-07-23 13:50:00,
2014-07-23 08:51:00,81.1,75.8,29.91,WSW,250,2.0,4.0,84,0.00,,---,0.00,VWS V14.01,2014-07-23 13:51:00,
2014-07-23 08:52:00,81.2,75.9,29.91,West,270,0.0,4.0,84,0.00,,---,0.00,VWS V14.01,2014-07-23 13:52:00,
2014-07-23 08:53:00,81.2,75.9,29.91,West,270,0.0,4.0,84,0.00,,---,0.00,VWS V14.01,2014-07-23 13:53:00,
2014-07-23 08:54:00,81.2,76.3,29.91,North,351,1.0,4.0,85,0.00,,---,0.00,VWS V14.01,2014-07-23 13:54:00,
2014-07-23 08:55:00,81.4,76.5,29.91,North,353,0.0,2.0,85,0.00,,---,0.00,VWS V14.01,2014-07-23 13:55:00,
2014-07-23 08:56:00,81.2,75.9,29.91,North,6,4.0,5.0,84,0.00,,---,0.00,VWS V14.01,2014-07-23 13:56:00,
2014-07-23 08:57:00,81.6,76.7,29.91,West,271,3.0,3.0,85,0.00,,---,0.00,VWS V14.01,2014-07-23 13:57:00,
2014-07-23 08:58:00,81.6,76.3,29.91,West,278,2.0,5.0,84,0.00,,---,0.00,VWS V14.01,2014-07-23 13:58:00,
2014-07-23 08:59:00,81.6,76.3,29.91,WSW,245,5.0,6.0,84,0.00,,---,0.00,VWS V14.01,2014-07-23 13:59:00,
2014-07-23 09:00:00,81.6,76.3,29.91,NNW,333,4.0,4.0,84,0.00,,---,0.00,VWS V14.01,2014-07-23 14:00:00,
2014-07-23 09:01:00,81.2,75.9,29.91,WNW,302,1.0,4.0,84,0.00,,---,0.00,VWS V14.01,2014-07-23 14:01:00,
2014-07-23 09:02:00,81.6,76.7,29.91,North,350,0.0,4.0,85,0.00,,---,0.00,VWS V14.01,2014-07-23 14:02:00,
2014-07-23 09:03:00,81.6,76.7,29.91,North,8,0.0,4.0,85,0.00,,---,0.00,VWS V14.01,2014-07-23 14:03:00,
2014-07-23 09:04:00,81.6,76.3,29.91,NE,41,3.0,5.0,84,0.00,,---,0.00,VWS V14.01,2014-07-23 14:04:00,
2014-07-23 09:05:00,81.6,76.7,29.91,NNE,15,1.0,1.0,85,0.00,,---,0.00,VWS V14.01,2014-07-23 14:05:00,
2014-07-23 09:06:00,81.4,76.5,29.91,NNE,24,0.0,2.0,85,0.00,,---,0.00,VWS V14.01,2014-07-23 14:06:00,
2014-07-23 09:07:00,81.8,76.8,29.91,NNE,32,0.0,1.0,85,0.00,,---,0.00,VWS V14.01,2014-07-23 14:07:00,
2014-07-23 09:08:00,81.8,76.5,29.91,North,11,0.0,4.0,84,0.00,,---,0.00,VWS V14.01,2014-07-23 14:08:00,
2014-07-23 09:09:00,81.8,76.5,29.91,North,358,1.0,4.0,84,0.00,,---,0.00,VWS V14.01,2014-07-23 14:09:00,
2014-07-23 09:10:00,82.0,76.7,29.91,WSW,244,1.0,2.0,84,0.00,,---,0.00,VWS V14.01,2014-07-23 14:10:00,
2014-07-23 09:11:00,81.6,76.3,29.91,SE,132,0.0,4.0,84,0.00,,---,0.00,VWS V14.01,2014-07-23 14:11:00,
2014-07-23 09:12:00,82.0,76.3,29.91,North,349,4.0,5.0,83,0.00,,---,0.00,VWS V14.01,2014-07-23 14:12:00,
2014-07-23 09:13:00,82.0,76.3,29.91,NNW,342,0.0,5.0,83,0.00,,---,0.00,VWS V14.01,2014-07-23 14:13:00,
2014-07-23 09:14:00,82.2,76.9,29.91,North,358,0.0,5.0,84,0.00,,---,0.00,VWS V14.01,2014-07-23 14:14:00,
2014-07-23 09:15:00,82.2,76.9,29.91,North,358,3.0,3.0,84,0.00,,---,0.00,VWS V14.01,2014-07-23 14:15:00,
2014-07-23 09:16:00,81.8,76.8,29.91,NNE,32,0.0,1.0,85,0.00,,---,0.00,VWS V14.01,2014-07-23 14:16:00,
2014-07-23 09:17:00,82.2,76.5,29.91,NNW,347,2.0,4.0,83,0.00,,---,0.00,VWS V14.01,2014-07-23 14:17:00,
2014-07-23 09:18:00,82.2,76.9,29.91,North,4,0.0,4.0,84,0.00,,---,0.00,VWS V14.01,2014-07-23 14:18:00,
2014-07-23 09:19:00,82.4,76.7,29.91,NE,34,3.0,5.0,83,0.00,,---,0.00,VWS V14.01,2014-07-23 14:19:00,
2014-07-23 09:20:00,82.4,76.7,29.91,NNW,330,1.0,3.0,83,0.00,,---,0.00,VWS V14.01,2014-07-23 14:20:00,
2014-07-23 09:21:00,82.0,76.7,29.91,NNW,327,2.0,5.0,84,0.00,,---,0.00,VWS V14.01,2014-07-23 14:21:00,
2014-07-23 09:22:00,82.4,76.7,29.91,North,349,1.0,6.0,83,0.00,,---,0.00,VWS V14.01,2014-07-23 14:22:00,
2014-07-23 09:23:00,82.4,76.4,29.91,North,1,3.0,6.0,82,0.00,,---,0.00,VWS V14.01,2014-07-23 14:23:00,
2014-07-23 09:24:00,82.2,76.5,29.91,NE,36,6.0,7.0,83,0.00,,---,0.00,VWS V14.01,2014-07-23 14:24:00,
2014-07-23 09:25:00,82.2,76.5,29.91,NNW,342,2.0,6.0,83,0.00,,---,0.00,VWS V14.01,2014-07-23 14:25:00,
2014-07-23 09:26:00,82.2,76.5,29.91,NNW,345,2.0,4.0,83,0.00,,---,0.00,VWS V14.01,2014-07-23 14:26:00,
2014-07-23 09:27:00,82.2,76.5,29.91,North,0,5.0,6.0,83,0.00,,---,0.00,VWS V14.01,2014-07-23 14:27:00,
2014-07-23 09:28:00,82.2,76.2,29.91,NNE,23,2.0,7.0,82,0.00,,---,0.00,VWS V14.01,2014-07-23 14:28:00,
2014-07-23 09:29:00,82.2,76.5,29.92,North,4,0.0,7.0,83,0.00,,---,0.00,VWS V14.01,2014-07-23 14:29:00,
2014-07-23 09:30:00,82.2,76.9,29.92,North,0,6.0,6.0,84,0.00,,---,0.00,VWS V14.01,2014-07-23 14:30:00,
2014-07-23 09:31:00,82.4,76.7,29.91,NNW,328,5.0,6.0,83,0.00,,---,0.00,VWS V14.01,2014-07-23 14:31:00,
2014-07-23 09:32:00,82.2,76.5,29.92,North,11,1.0,6.0,83,0.00,,---,0.00,VWS V14.01,2014-07-23 14:32:00,
2014-07-23 09:33:00,82.2,76.5,29.92,North,0,3.0,6.0,83,0.00,,---,0.00,VWS V14.01,2014-07-23 14:33:00,
2014-07-23 09:34:00,82.2,76.2,29.92,NNE,24,4.0,6.0,82,0.00,,---,0.00,VWS V14.01,2014-07-23 14:34:00,
2014-07-23 09:35:00,82.2,76.9,29.92,NNW,328,0.0,0.0,84,0.00,,---,0.00,VWS V14.01,2014-07-23 14:35:00,
2014-07-23 09:36:00,82.2,76.5,29.91,North,357,1.0,6.0,83,0.00,,---,0.00,VWS V14.01,2014-07-23 14:36:00,
2014-07-23 09:37:00,82.2,76.5,29.92,North,356,2.0,5.0,83,0.00,,---,0.00,VWS V14.01,2014-07-23 14:37:00,
2014-07-23 09:38:00,82.2,76.5,29.92,NW,319,2.0,7.0,83,0.00,,---,0.00,VWS V14.01,2014-07-23 14:38:00,
2014-07-23 09:39:00,82.4,76.7,29.92,North,8,4.0,7.0,83,0.00,,---,0.00,VWS V14.01,2014-07-23 14:39:00,
2014-07-23 09:40:00,82.4,76.7,29.92,NNW,347,2.0,5.0,83,0.00,,---,0.00,VWS V14.01,2014-07-23 14:40:00,
2014-07-23 09:41:00,82.2,76.5,29.92,WNW,302,1.0,6.0,83,0.00,,---,0.00,VWS V14.01,2014-07-23 14:41:00,
2014-07-23 09:42:00,82.4,76.7,29.92,NW,319,0.0,5.0,83,0.00,,---,0.00,VWS V14.01,2014-07-23 14:42:00,
2014-07-23 09:43:00,82.6,77.3,29.92,NW,322,0.0,5.0,84,0.00,,---,0.00,VWS V14.01,2014-07-23 14:43:00,
2014-07-23 09:44:00,82.6,76.9,29.92,NNE,28,0.0,5.0,83,0.00,,---,0.00,VWS V14.01,2014-07-23 14:44:00,
2014-07-23 09:45:00,82.6,76.9,29.92,NNE,28,0.0,0.0,83,0.00,,---,0.00,VWS V14.01,2014-07-23 14:45:00,
2014-07-23 09:46:00,82.2,76.5,29.92,North,0,2.0,5.0,83,0.00,,---,0.00,VWS V14.01,2014-07-23 14:46:00,
2014-07-23 09:47:00,82.8,77.1,29.92,ENE,65,0.0,2.0,83,0.00,,---,0.00,VWS V14.01,2014-07-23 14:47:00,
2014-07-23 09:48:00,83.0,77.3,29.92,North,352,0.0,4.0,83,0.00,,---,0.00,VWS V14.01,2014-07-23 14:48:00,
2014-07-23 09:49:00,83.0,77.3,29.92,NNE,23,6.0,6.0,83,0.00,,---,0.00,VWS V14.01,2014-07-23 14:49:00,
2014-07-23 09:50:00,83.0,77.3,29.92,NNW,347,3.0,3.0,83,0.00,,---,0.00,VWS V14.01,2014-07-23 14:50:00,
2014-07-23 09:51:00,82.4,76.7,29.92,North,351,0.0,5.0,83,0.00,,---,0.00,VWS V14.01,2014-07-23 14:51:00,
2014-07-23 09:52:00,83.2,76.4,29.92,WNW,302,3.0,9.0,80,0.00,,---,0.00,VWS V14.01,2014-07-23 14:52:00,
2014-07-23 09:53:00,83.2,76.8,29.92,NNE,13,0.0,9.0,81,0.00,,---,0.00,VWS V14.01,2014-07-23 14:53:00,
2014-07-23 09:54:00,83.2,76.8,29.92,NNE,20,4.0,9.0,81,0.00,,---,0.00,VWS V14.01,2014-07-23 14:54:00,
2014-07-23 09:55:00,83.4,77.3,29.92,NW,324,0.0,0.0,82,0.00,,---,0.00,VWS V14.01,2014-07-23 14:55:00,
2014-07-23 09:56:00,82.8,76.8,29.92,ENE,65,0.0,2.0,82,0.00,,---,0.00,VWS V14.01,2014-07-23 14:56:00,
2014-07-23 09:57:00,83.6,77.5,29.92,North,349,0.0,0.0,82,0.00,,---,0.00,VWS V14.01,2014-07-23 14:57:00,
2014-07-23 09:58:00,83.6,76.8,29.92,WNW,301,0.0,1.0,80,0.00,,---,0.00,VWS V14.01,2014-07-23 14:58:00,
2014-07-23 09:59:00,83.8,77.0,29.92,NNW,336,0.0,1.0,80,0.00,,---,0.00,VWS V14.01,2014-07-23 14:59:00,
2014-07-23 10:00:00,83.8,77.3,29.92,West,262,1.0,1.0,81,0.00,,---,0.00,VWS V14.01,2014-07-23 15:00:00,
2014-07-23 10:01:00,83.2,77.5,29.92,North,7,3.0,9.0,83,0.00,,---,0.00,VWS V14.01,2014-07-23 15:01:00,
2014-07-23 10:02:00,84.0,77.2,29.92,West,277,2.0,3.0,80,0.00,,---,0.00,VWS V14.01,2014-07-23 15:02:00,
2014-07-23 10:03:00,84.0,76.8,29.92,NE,43,0.0,4.0,79,0.00,,---,0.00,VWS V14.01,2014-07-23 15:03:00,
2014-07-23 10:04:00,84.0,77.5,29.92,WSW,245,4.0,4.0,81,0.00,,---,0.00,VWS V14.01,2014-07-23 15:04:00,
2014-07-23 10:05:00,84.0,76.4,29.92,WNW,302,2.0,4.0,78,0.00,,---,0.00,VWS V14.01,2014-07-23 15:05:00,
2014-07-23 10:06:00,83.6,77.5,29.92,NNW,334,0.0,0.0,82,0.00,,---,0.00,VWS V14.01,2014-07-23 15:06:00,
2014-07-23 10:07:00,84.1,77.3,29.92,NNE,21,1.0,5.0,80,0.00,,---,0.00,VWS V14.01,2014-07-23 15:07:00,
2014-07-23 10:08:00,84.1,76.5,29.92,North,352,2.0,5.0,78,0.00,,---,0.00,VWS V14.01,2014-07-23 15:08:00,
2014-07-23 10:09:00,84.1,76.9,29.92,NNW,341,0.0,5.0,79,0.00,,---,0.00,VWS V14.01,2014-07-23 15:09:00,
2014-07-23 10:10:00,84.1,76.9,29.92,NNW,341,3.0,4.0,79,0.00,,---,0.00,VWS V14.01,2014-07-23 15:10:00,
2014-07-23 10:11:00,83.8,77.0,29.92,WNW,298,0.0,2.0,80,0.00,,---,0.00,VWS V14.01,2014-07-23 15:11:00,
2014-07-23 10:12:00,84.1,77.3,29.92,NW,317,0.0,4.0,80,0.00,,---,0.00,VWS V14.01,2014-07-23 15:12:00,
2014-07-23 10:13:00,84.1,76.9,29.92,West,278,0.0,4.0,79,0.00,,---,0.00,VWS V14.01,2014-07-23 15:13:00,
2014-07-23 10:14:00,84.1,76.9,29.92,NNW,328,0.0,4.0,79,0.00,,---,0.00,VWS V14.01,2014-07-23 15:14:00,
2014-07-23 10:15:00,84.1,77.3,29.92,North,349,2.0,2.0,80,0.00,,---,0.00,VWS V14.01,2014-07-23 15:15:00,
2014-07-23 10:16:00,84.1,77.3,29.92,NNE,30,5.0,5.0,80,0.00,,---,0.00,VWS V14.01,2014-07-23 15:16:00,
2014-07-23 10:17:00,84.3,77.1,29.92,North,5,0.0,4.0,79,0.00,,---,0.00,VWS V14.01,2014-07-23 15:17:00,
2014-07-23 10:18:00,84.3,77.1,29.92,NNE,16,2.0,5.0,79,0.00,,---,0.00,VWS V14.01,2014-07-23 15:18:00,
2014-07-23 10:19:00,84.3,77.1,29.92,NNE,16,1.0,5.0,79,0.00,,---,0.00,VWS V14.01,2014-07-23 15:19:00,
2014-07-23 10:20:00,84.5,77.3,29.92,NNW,332,0.0,0.0,79,0.00,,---,0.00,VWS V14.01,2014-07-23 15:20:00,
2014-07-23 10:21:00,84.1,76.9,29.92,NW,317,1.0,4.0,79,0.00,,---,0.00,VWS V14.01,2014-07-23 15:21:00,
2014-07-23 10:22:00,84.7,77.8,29.92,North,354,5.0,5.0,80,0.00,,---,0.00,VWS V14.01,2014-07-23 15:22:00,
2014-07-23 10:23:00,84.7,77.1,29.92,NNW,348,3.0,6.0,78,0.00,,---,0.00,VWS V14.01,2014-07-23 15:23:00,
2014-07-23 10:24:00,84.7,77.1,29.92,North,355,1.0,6.0,78,0.00,,---,0.00,VWS V14.01,2014-07-23 15:24:00,
2014-07-23 10:25:00,84.5,76.9,29.92,NE,51,3.0,3.0,78,0.00,,---,0.00,VWS V14.01,2014-07-23 15:25:00,
2014-07-23 10:26:00,84.3,77.1,29.92,NE,38,0.0,4.0,79,0.00,,---,0.00,VWS V14.01,2014-07-23 15:26:00,
2014-07-23 10:27:00,84.7,77.8,29.92,NNW,328,0.0,3.0,80,0.00,,---,0.00,VWS V14.01,2014-07-23 15:27:00,
2014-07-23 10:28:00,84.7,76.7,29.92,ENE,64,0.0,3.0,77,0.00,,---,0.00,VWS V14.01,2014-07-23 15:28:00,
2014-07-23 10:29:00,84.5,76.5,29.92,NNW,345,4.0,4.0,77,0.00,,---,0.00,VWS V14.01,2014-07-23 15:29:00,
2014-07-23 10:30:00,84.5,76.5,29.92,North,350,0.0,0.0,77,0.00,,---,0.00,VWS V14.01,2014-07-23 15:30:00,
2014-07-23 10:31:00,84.5,77.3,29.92,ENE,68,0.0,0.0,79,0.00,,---,0.00,VWS V14.01,2014-07-23 15:31:00,
2014-07-23 10:32:00,84.5,76.9,29.92,ENE,65,0.0,9.0,78,0.00,,---,0.00,VWS V14.01,2014-07-23 15:32:00,
2014-07-23 10:33:00,84.5,76.5,29.92,ENE,65,0.0,9.0,77,0.00,,---,0.00,VWS V14.01,2014-07-23 15:33:00,
2014-07-23 10:34:00,84.5,77.3,29.92,NNW,330,5.0,9.0,79,0.00,,---,0.00,VWS V14.01,2014-07-23 15:34:00,
2014-07-23 10:35:00,84.5,76.9,29.92,NNW,348,1.0,2.0,78,0.00,,---,0.00,VWS V14.01,2014-07-23 15:35:00,
2014-07-23 10:36:00,84.7,77.8,29.92,NE,51,0.0,3.0,80,0.00,,---,0.00,VWS V14.01,2014-07-23 15:36:00,
2014-07-23 10:37:00,84.7,77.1,29.92,North,1,0.0,4.0,78,0.00,,---,0.00,VWS V14.01,2014-07-23 15:37:00,
2014-07-23 10:38:00,84.9,78.0,29.92,SW,227,0.0,4.0,80,0.00,,---,0.00,VWS V14.01,2014-07-23 15:38:00,
2014-07-23 10:39:00,84.9,76.9,29.92,ENE,65,2.0,4.0,77,0.00,,---,0.00,VWS V14.01,2014-07-23 15:39:00,
2014-07-23 10:40:00,85.1,77.1,29.92,North,358,2.0,4.0,77,0.00,,---,0.00,VWS V14.01,2014-07-23 15:40:00,
2014-07-23 10:41:00,84.5,76.9,29.92,NE,39,2.0,9.0,78,0.00,,---,0.00,VWS V14.01,2014-07-23 15:41:00,
2014-07-23 10:42:00,85.1,77.1,29.92,North,9,1.0,6.0,77,0.00,,---,0.00,VWS V14.01,2014-07-23 15:42:00,
2014-07-23 10:43:00,85.1,77.1,29.92,NW,324,0.0,6.0,77,0.00,,---,0.00,VWS V14.01,2014-07-23 15:43:00,
2014-07-23 10:44:00,85.1,77.1,29.93,North,355,0.0,6.0,77,0.00,,---,0.00,VWS V14.01,2014-07-23 15:44:00,
2014-07-23 10:45:00,85.1,77.5,29.93,North,355,0.0,0.0,78,0.00,,---,0.00,VWS V14.01,2014-07-23 15:45:00,
2014-07-23 10:46:00,84.7,77.1,29.92,North,1,0.0,4.0,78,0.00,,---,0.00,VWS V14.01,2014-07-23 15:46:00,
2014-07-23 10:47:00,85.3,78.1,29.93,North,355,1.0,1.0,79,0.00,,---,0.00,VWS V14.01,2014-07-23 15:47:00,
2014-07-23 10:48:00,85.3,77.7,29.93,NNW,333,0.0,1.0,78,0.00,,---,0.00,VWS V14.01,2014-07-23 15:48:00,
2014-07-23 10:49:00,85.3,77.3,29.93,NNW,333,0.0,1.0,77,0.00,,---,0.00,VWS V14.01,2014-07-23 15:49:00,
2014-07-23 10:50:00,85.3,77.3,29.93,NNW,345,0.0,0.0,77,0.00,,---,0.00,VWS V14.01,2014-07-23 15:50:00,
2014-07-23 10:51:00,85.1,77.1,29.92,North,0,3.0,6.0,77,0.00,,---,0.00,VWS V14.01,2014-07-23 15:51:00,
2014-07-23 10:52:00,85.5,77.9,29.93,North,0,5.0,5.0,78,0.00,,---,0.00,VWS V14.01,2014-07-23 15:52:00,
2014-07-23 10:53:00,85.5,76.7,29.93,North,0,4.0,5.0,75,0.00,,---,0.00,VWS V14.01,2014-07-23 15:53:00,
2014-07-23 10:54:00,85.5,76.7,29.93,North,0,2.0,6.0,75,0.00,,---,0.00,VWS V14.01,2014-07-23 15:54:00,
2014-07-23 10:55:00,85.3,76.9,29.93,NNW,339,0.0,2.0,76,0.00,,---,0.00,VWS V14.01,2014-07-23 15:55:00,
2014-07-23 10:56:00,85.3,78.1,29.93,North,355,0.0,0.0,79,0.00,,---,0.00,VWS V14.01,2014-07-23 15:56:00,
2014-07-23 10:57:00,85.3,76.9,29.93,NE,44,1.0,4.0,76,0.00,,---,0.00,VWS V14.01,2014-07-23 15:57:00,
2014-07-23 10:58:00,85.3,76.9,29.93,NW,322,6.0,6.0,76,0.00,,---,0.00,VWS V14.01,2014-07-23 15:58:00,
2014-07-23 10:59:00,85.1,76.7,29.93,NE,38,4.0,6.0,76,0.00,,---,0.00,VWS V14.01,2014-07-23 15:59:00,
2014-07-23 11:00:00,85.1,77.1,29.93,NE,47,2.0,4.0,77,0.00,,---,0.00,VWS V14.01,2014-07-23 16:00:00,
2014-07-23 11:01:00,85.5,77.9,29.93,NNW,345,0.0,2.0,78,0.00,,---,0.00,VWS V14.01,2014-07-23 16:01:00,
2014-07-23 11:02:00,85.1,77.5,29.93,North,11,5.0,5.0,78,0.00,,---,0.00,VWS V14.01,2014-07-23 16:02:00,
2014-07-23 11:03:00,85.1,77.1,29.93,North,0,5.0,6.0,77,0.00,,---,0.00,VWS V14.01,2014-07-23 16:03:00,
2014-07-23 11:04:00,84.9,76.9,29.93,North,350,3.0,6.0,77,0.00,,---,0.00,VWS V14.01,2014-07-23 16:04:00,
2014-07-23 11:05:00,84.9,77.3,29.93,NNW,338,7.0,7.0,78,0.00,,---,0.00,VWS V14.01,2014-07-23 16:05:00,
2014-07-23 11:06:00,85.3,76.9,29.93,NE,50,3.0,4.0,76,0.00,,---,0.00,VWS V14.01,2014-07-23 16:06:00,
2014-07-23 11:07:00,84.9,76.9,29.93,NNW,347,0.0,9.0,77,0.00,,---,0.00,VWS V14.01,2014-07-23 16:07:00,
2014-07-23 11:08:00,84.9,76.9,29.93,North,0,3.0,9.0,77,0.00,,---,0.00,VWS V14.01,2014-07-23 16:08:00,
2014-07-23 11:09:00,84.9,76.9,29.93,West,276,2.0,9.0,77,0.00,,---,0.00,VWS V14.01,2014-07-23 16:09:00,
2014-07-23 11:10:00,84.9,76.5,29.93,SW,232,0.0,1.0,76,0.00,,---,0.00,VWS V14.01,2014-07-23 16:10:00,
2014-07-23 11:11:00,85.1,77.5,29.93,North,358,3.0,4.0,78,0.00,,---,0.00,VWS V14.01,2014-07-23 16:11:00,
2014-07-23 11:12:00,84.9,76.5,29.93,NNW,331,0.0,2.0,76,0.00,,---,0.00,VWS V14.01,2014-07-23 16:12:00,
2014-07-23 11:13:00,84.9,76.9,29.93,NNW,345,0.0,2.0,77,0.00,,---,0.00,VWS V14.01,2014-07-23 16:13:00,
2014-07-23 11:14:00,84.9,76.9,29.92,NNW,341,1.0,3.0,77,0.00,,---,0.00,VWS V14.01,2014-07-23 16:14:00,
2014-07-23 11:15:00,84.9,76.9,29.92,North,6,4.0,5.0,77,0.00,,---,0.00,VWS V14.01,2014-07-23 16:15:00,
2014-07-23 11:16:00,84.9,76.9,29.93,North,349,5.0,9.0,77,0.00,,---,0.00,VWS V14.01,2014-07-23 16:16:00,
2014-07-23 11:17:00,84.9,76.5,29.92,North,2,3.0,9.0,76,0.00,,---,0.00,VWS V14.01,2014-07-23 16:17:00,
2014-07-23 11:18:00,85.1,77.1,29.92,WNW,285,0.0,9.0,77,0.00,,---,0.00,VWS V14.01,2014-07-23 16:18:00,
2014-07-23 11:19:00,85.3,78.1,29.92,North,0,2.0,9.0,79,0.00,,---,0.00,VWS V14.01,2014-07-23 16:19:00,
2014-07-23 11:20:00,85.5,78.2,29.92,North,0,0.0,0.0,79,0.00,,---,0.00,VWS V14.01,2014-07-23 16:20:00,
2014-07-23 11:21:00,84.9,76.5,29.93,NNW,332,1.0,2.0,76,0.00,,---,0.00,VWS V14.01,2014-07-23 16:21:00,
2014-07-23 11:22:00,85.7,76.9,29.92,North,354,3.0,6.0,75,0.00,,---,0.00,VWS V14.01,2014-07-23 16:22:00,
2014-07-23 11:23:00,85.7,77.3,29.92,North,8,0.0,6.0,76,0.00,,---,0.00,VWS V14.01,2014-07-23 16:23:00,
2014-07-23 11:24:00,85.9,77.1,29.92,NNE,18,5.0,6.0,75,0.00,,---,0.00,VWS V14.01,2014-07-23 16:24:00,
2014-07-23 11:25:00,85.9,77.1,29.92,NNE,21,6.0,6.0,75,0.00,,---,0.00,VWS V14.01,2014-07-23 16:25:00,
2014-07-23 11:26:00,84.9,76.5,29.92,North,0,3.0,9.0,76,0.00,,---,0.00,VWS V14.01,2014-07-23 16:26:00,
2014-07-23 11:27:00,85.9,76.7,29.92,ESE,110,1.0,6.0,74,0.00,,---,0.00,VWS V14.01,2014-07-23 16:27:00,
2014-07-23 11:28:00,85.9,76.7,29.92,NNE,12,2.0,6.0,74,0.00,,---,0.00,VWS V14.01,2014-07-23 16:28:00,
2014-07-23 11:29:00,85.9,77.1,29.92,NE,37,1.0,6.0,75,0.00,,---,0.00,VWS V14.01,2014-07-23 16:29:00,
2014-07-23 11:30:00,85.7,76.9,29.92,NNW,348,3.0,3.0,75,0.00,,---,0.00,VWS V14.01,2014-07-23 16:30:00,
2014-07-23 11:31:00,85.7,76.9,29.92,NNW,332,6.0,6.0,75,0.00,,---,0.00,VWS V14.01,2014-07-23 16:31:00,
2014-07-23 11:32:00,85.7,77.7,29.92,NE,56,3.0,4.0,77,0.00,,---,0.00,VWS V14.01,2014-07-23 16:32:00,
2014-07-23 11:33:00,85.7,77.3,29.92,NNW,342,1.0,4.0,76,0.00,,---,0.00,VWS V14.01,2014-07-23 16:33:00,
2014-07-23 11:34:00,85.7,77.7,29.92,North,0,2.0,4.0,77,0.00,,---,0.00,VWS V14.01,2014-07-23 16:34:00,
2014-07-23 11:35:00,85.7,77.3,29.92,North,0,2.0,6.0,76,0.00,,---,0.00,VWS V14.01,2014-07-23 16:35:00,
2014-07-23 11:36:00,85.9,76.7,29.92,ESE,110,3.0,6.0,74,0.00,,---,0.00,VWS V14.01,2014-07-23 16:36:00,
2014-07-23 11:37:00,85.5,77.1,29.92,NNE,30,1.0,6.0,76,0.00,,---,0.00,VWS V14.01,2014-07-23 16:37:00,
2014-07-23 11:38:00,85.5,77.1,29.92,North,349,2.0,6.0,76,0.00,,---,0.00,VWS V14.01,2014-07-23 16:38:00,
2014-07-23 11:39:00,85.5,77.1,29.92,North,358,7.0,10.0,76,0.00,,---,0.00,VWS V14.01,2014-07-23 16:39:00,
2014-07-23 11:40:00,85.3,76.5,29.92,NNW,345,2.0,5.0,75,0.00,,---,0.00,VWS V14.01,2014-07-23 16:40:00,
2014-07-23 11:41:00,85.7,76.9,29.92,North,0,3.0,4.0,75,0.00,,---,0.00,VWS V14.01,2014-07-23 16:41:00,
2014-07-23 11:42:00,84.9,76.9,29.92,North,1,2.0,5.0,77,0.00,,---,0.00,VWS V14.01,2014-07-23 16:42:00,
2014-07-23 11:43:00,84.9,76.9,29.92,NNE,12,2.0,7.0,77,0.00,,---,0.00,VWS V14.01,2014-07-23 16:43:00,
2014-07-23 11:44:00,84.9,76.9,29.91,NNW,342,1.0,7.0,77,0.00,,---,0.00,VWS V14.01,2014-07-23 16:44:00,
2014-07-23 11:45:00,85.1,77.1,29.91,NNE,13,2.0,3.0,77,0.00,,---,0.00,VWS V14.01,2014-07-23 16:45:00,
2014-07-23 11:46:00,85.7,77.3,29.92,East,91,4.0,6.0,76,0.00,,---,0.00,VWS V14.01,2014-07-23 16:46:00,
2014-07-23 11:47:00,85.3,77.3,29.91,North,0,4.0,11.0,77,0.00,,---,0.00,VWS V14.01,2014-07-23 16:47:00,
2014-07-23 11:48:00,85.3,76.1,29.91,North,356,2.0,11.0,74,0.00,,---,0.00,VWS V14.01,2014-07-23 16:48:00,
2014-07-23 11:49:00,85.3,76.1,29.91,North,358,6.0,11.0,74,0.00,,---,0.00,VWS V14.01,2014-07-23 16:49:00,
2014-07-23 11:50:00,85.5,76.7,29.91,North,0,1.0,3.0,75,0.00,,---,0.00,VWS V14.01,2014-07-23 16:50:00,
2014-07-23 11:51:00,84.9,76.9,29.92,North,356,2.0,5.0,77,0.00,,---,0.00,VWS V14.01,2014-07-23 16:51:00,
2014-07-23 11:52:00,85.7,77.3,29.91,NNW,339,1.0,3.0,76,0.00,,---,0.00,VWS V14.01,2014-07-23 16:52:00,
2014-07-23 11:53:00,85.9,77.5,29.91,SW,222,0.0,6.0,76,0.00,,---,0.00,VWS V14.01,2014-07-23 16:53:00,
2014-07-23 11:54:00,85.9,77.5,29.91,North,11,5.0,7.0,76,0.00,,---,0.00,VWS V14.01,2014-07-23 16:54:00,
2014-07-23 11:55:00,86.1,76.4,29.91,NNE,24,0.0,0.0,73,0.00,,---,0.00,VWS V14.01,2014-07-23 16:55:00,
2014-07-23 11:56:00,85.3,77.3,29.91,NNW,341,4.0,6.0,77,0.00,,---,0.00,VWS V14.01,2014-07-23 16:56:00,
2014-07-23 11:57:00,86.5,77.6,29.91,SSE,167,1.0,4.0,75,0.00,,---,0.00,VWS V14.01,2014-07-23 16:57:00,
2014-07-23 11:58:00,86.5,77.2,29.91,North,358,0.0,4.0,74,0.00,,---,0.00,VWS V14.01,2014-07-23 16:58:00,
2014-07-23 11:59:00,86.7,77.0,29.91,North,356,0.0,4.0,73,0.00,,---,0.00,VWS V14.01,2014-07-23 16:59:00,
2014-07-23 12:00:00,86.7,77.0,29.91,North,0,2.0,3.0,73,0.00,,---,0.00,VWS V14.01,2014-07-23 17:00:00,
2014-07-23 12:01:00,85.7,77.3,29.91,North,0,0.0,3.0,76,0.00,,---,0.00,VWS V14.01,2014-07-23 17:01:00,
2014-07-23 12:02:00,87.0,76.5,29.91,NNW,345,2.0,7.0,71,0.00,,---,0.00,VWS V14.01,2014-07-23 17:02:00,
2014-07-23 12:03:00,87.0,76.5,29.91,NNE,33,1.0,7.0,71,0.00,,---,0.00,VWS V14.01,2014-07-23 17:03:00,
2014-07-23 12:04:00,87.0,76.5,29.91,NNE,19,0.0,7.0,71,0.00,,---,0.00,VWS V14.01,2014-07-23 17:04:00,
2014-07-23 12:05:00,86.7,76.2,29.91,SSW,197,1.0,2.0,71,0.00,,---,0.00,VWS V14.01,2014-07-23 17:05:00,
2014-07-23 12:06:00,86.3,77.4,29.91,NNW,345,0.0,4.0,75,0.00,,---,0.00,VWS V14.01,2014-07-23 17:06:00,
2014-07-23 12:07:00,86.7,76.6,29.91,NNW,345,1.0,4.0,72,0.00,,---,0.00,VWS V14.01,2014-07-23 17:07:00,
2014-07-23 12:08:00,86.5,76.0,29.91,NNW,333,2.0,5.0,71,0.00,,---,0.00,VWS V14.01,2014-07-23 17:08:00,
2014-07-23 12:09:00,86.5,76.0,29.91,NW,321,0.0,5.0,71,0.00,,---,0.00,VWS V14.01,2014-07-23 17:09:00,
2014-07-23 12:10:00,86.3,76.2,29.91,NNW,329,0.0,0.0,72,0.00,,---,0.00,VWS V14.01,2014-07-23 17:10:00,
2014-07-23 12:11:00,87.0,76.5,29.91,North,0,3.0,7.0,71,0.00,,---,0.00,VWS V14.01,2014-07-23 17:11:00,
2014-07-23 12:12:00,86.1,75.6,29.91,North,358,5.0,5.0,71,0.00,,---,0.00,VWS V14.01,2014-07-23 17:12:00,
2014-07-23 12:13:00,85.9,75.4,29.91,ENE,61,4.0,6.0,71,0.00,,---,0.00,VWS V14.01,2014-07-23 17:13:00,
2014-07-23 12:14:00,85.5,75.4,29.91,North,0,1.0,6.0,72,0.00,,---,0.00,VWS V14.01,2014-07-23 17:14:00,
2014-07-23 12:15:00,85.5,75.9,29.91,NE,37,3.0,3.0,73,0.00,,---,0.00,VWS V14.01,2014-07-23 17:15:00,
2014-07-23 12:16:00,85.3,75.7,29.91,North,0,2.0,4.0,73,0.00,,---,0.00,VWS V14.01,2014-07-23 17:16:00,
2014-07-23 12:17:00,86.7,76.6,29.91,NNW,345,4.0,5.0,72,0.00,,---,0.00,VWS V14.01,2014-07-23 17:17:00,
2014-07-23 12:18:00,84.9,75.3,29.91,North,355,3.0,4.0,73,0.00,,---,0.00,VWS V14.01,2014-07-23 17:18:00,
2014-07-23 12:19:00,84.7,75.5,29.91,NNW,331,0.0,5.0,74,0.00,,---,0.00,VWS V14.01,2014-07-23 17:19:00,
2014-07-23 12:20:00,84.7,75.5,29.91,North,0,3.0,3.0,74,0.00,,---,0.00,VWS V14.01,2014-07-23 17:20:00,
2014-07-23 12:21:00,84.5,76.1,29.91,North,0,0.0,4.0,76,0.00,,---,0.00,VWS V14.01,2014-07-23 17:21:00,
2014-07-23 12:22:00,85.9,75.4,29.91,NNW,342,3.0,5.0,71,0.00,,---,0.00,VWS V14.01,2014-07-23 17:22:00,
2014-07-23 12:23:00,84.3,75.5,29.91,North,357,0.0,4.0,75,0.00,,---,0.00,VWS V14.01,2014-07-23 17:23:00,
2014-07-23 12:24:00,84.3,75.5,29.91,North,356,3.0,7.0,75,0.00,,---,0.00,VWS V14.01,2014-07-23 17:24:00,
2014-07-23 12:25:00,84.3,75.5,29.91,NNE,14,5.0,5.0,75,0.00,,---,0.00,VWS V14.01,2014-07-23 17:25:00,
2014-07-23 12:26:00,84.1,75.7,29.91,NNW,335,5.0,5.0,76,0.00,,---,0.00,VWS V14.01,2014-07-23 17:26:00,
2014-07-23 12:27:00,84.9,75.3,29.91,ENE,65,3.0,4.0,73,0.00,,---,0.00,VWS V14.01,2014-07-23 17:27:00,
2014-07-23 12:28:00,84.0,74.8,29.91,NW,321,2.0,5.0,74,0.00,,---,0.00,VWS V14.01,2014-07-23 17:28:00,
2014-07-23 12:29:00,84.0,75.2,29.91,NW,321,0.0,5.0,75,0.00,,---,0.00,VWS V14.01,2014-07-23 17:29:00,
2014-07-23 12:30:00,84.0,75.6,29.91,North,358,0.0,0.0,76,0.00,,---,0.00,VWS V14.01,2014-07-23 17:30:00,
2014-07-23 12:31:00,84.0,75.6,29.91,North,11,0.0,0.0,76,0.00,,---,0.00,VWS V14.01,2014-07-23 17:31:00,
2014-07-23 12:32:00,84.5,75.7,29.91,North,355,2.0,4.0,75,0.00,,---,0.00,VWS V14.01,2014-07-23 17:32:00,
2014-07-23 12:33:00,84.0,76.0,29.91,North,349,0.0,3.0,77,0.00,,---,0.00,VWS V14.01,2014-07-23 17:33:00,
2014-07-23 12:34:00,84.0,76.0,29.91,ESE,105,0.0,3.0,77,0.00,,---,0.00,VWS V14.01,2014-07-23 17:34:00,
2014-07-23 12:35:00,84.1,75.7,29.91,ESE,105,0.0,0.0,76,0.00,,---,0.00,VWS V14.01,2014-07-23 17:35:00,
2014-07-23 12:36:00,84.1,76.1,29.91,NNW,332,0.0,0.0,77,0.00,,---,0.00,VWS V14.01,2014-07-23 17:36:00,
2014-07-23 12:37:00,84.0,74.8,29.91,NNE,23,0.0,5.0,74,0.00,,---,0.00,VWS V14.01,2014-07-23 17:37:00,
2014-07-23 12:38:00,84.1,74.9,29.91,NNW,328,0.0,0.0,74,0.00,,---,0.00,VWS V14.01,2014-07-23 17:38:00,
2014-07-23 12:39:00,84.0,75.6,29.91,NNW,328,0.0,0.0,76,0.00,,---,0.00,VWS V14.01,2014-07-23 17:39:00,
2014-07-23 12:40:00,84.0,75.2,29.91,NNW,328,0.0,0.0,75,0.00,,---,0.00,VWS V14.01,2014-07-23 17:40:00,
2014-07-23 12:41:00,84.0,74.8,29.91,NNW,328,0.0,0.0,74,0.00,,---,0.00,VWS V14.01,2014-07-23 17:41:00,
2014-07-23 12:42:00,84.0,75.6,29.91,NNW,342,0.0,3.0,76,0.00,,---,0.00,VWS V14.01,2014-07-23 17:42:00,
2014-07-23 12:43:00,83.8,74.6,29.91,NNW,328,0.0,0.0,74,0.00,,---,0.00,VWS V14.01,2014-07-23 17:43:00,
2014-07-23 12:44:00,83.6,74.4,29.91,NNW,340,0.0,0.0,74,0.00,,---,0.00,VWS V14.01,2014-07-23 17:44:00,
2014-07-23 12:45:00,83.4,73.8,29.91,North,6,0.0,0.0,73,0.00,,---,0.00,VWS V14.01,2014-07-23 17:45:00,
2014-07-23 12:46:00,83.2,73.7,29.91,North,4,0.0,0.0,73,0.00,,---,0.00,VWS V14.01,2014-07-23 17:46:00,
2014-07-23 12:47:00,84.1,75.7,29.91,NNW,328,0.0,0.0,76,0.00,,---,0.00,VWS V14.01,2014-07-23 17:47:00,
2014-07-23 12:48:00,82.8,73.3,29.91,North,351,0.0,0.0,73,0.00,,---,0.00,VWS V14.01,2014-07-23 17:48:00,
2014-07-23 12:49:00,82.4,73.3,29.91,North,351,0.0,0.0,74,0.00,,---,0.00,VWS V14.01,2014-07-23 17:49:00,
2014-07-23 12:50:00,82.2,73.5,29.91,North,351,0.0,0.0,75,0.00,,---,0.00,VWS V14.01,2014-07-23 17:50:00,
2014-07-23 12:51:00,82.0,73.3,29.91,North,351,0.0,0.0,75,0.00,,---,0.00,VWS V14.01,2014-07-23 17:51:00,
2014-07-23 12:52:00,83.8,75.0,29.91,NNW,328,0.0,0.0,75,0.00,,---,0.00,VWS V14.01,2014-07-23 17:52:00,
2014-07-23 12:53:00,81.6,72.9,29.91,North,358,3.0,5.0,75,0.00,,---,0.00,VWS V14.01,2014-07-23 17:53:00,
2014-07-23 12:54:00,81.4,72.7,29.91,North,358,0.0,5.0,75,0.00,,---,0.00,VWS V14.01,2014-07-23 17:54:00,
2014-07-23 12:55:00,81.1,72.8,29.91,North,358,0.0,0.0,76,0.00,,---,0.00,VWS V14.01,2014-07-23 17:55:00,
2014-07-23 12:56:00,81.1,72.8,29.91,North,358,0.0,0.0,76,0.00,,---,0.00,VWS V14.01,2014-07-23 17:56:00,
2014-07-23 12:57:00,82.8,73.3,29.91,North,351,0.0,0.0,73,0.00,,---,0.00,VWS V14.01,2014-07-23 17:57:00,
2014-07-23 12:58:00,80.9,73.4,29.91,North,358,0.0,0.0,78,0.00,,---,0.00,VWS V14.01,2014-07-23 17:58:00,
2014-07-23 12:59:00,80.7,73.2,29.92,North,358,0.0,0.0,78,0.00,,---,0.00,VWS V14.01,2014-07-23 17:59:00,
2014-07-23 13:00:00,80.7,72.8,29.92,North,358,0.0,0.0,77,0.00,,---,0.00,VWS V14.01,2014-07-23 18:00:00,
2014-07-23 13:01:00,80.7,73.2,29.92,North,358,0.0,0.0,78,0.00,,---,0.00,VWS V14.01,2014-07-23 18:01:00,
2014-07-23 13:02:00,81.8,73.1,29.91,North,358,5.0,5.0,75,0.00,,---,0.00,VWS V14.01,2014-07-23 18:02:00,
2014-07-23 13:03:00,80.7,73.2,29.92,North,358,0.0,0.0,78,0.00,,---,0.00,VWS V14.01,2014-07-23 18:03:00,
2014-07-23 13:04:00,80.7,73.6,29.92,North,351,0.0,0.0,79,0.00,,---,0.00,VWS V14.01,2014-07-23 18:04:00,
2014-07-23 13:05:00,80.7,73.6,29.92,North,358,0.0,0.0,79,0.00,,---,0.00,VWS V14.01,2014-07-23 18:05:00,
2014-07-23 13:06:00,80.7,74.0,29.92,North,358,0.0,0.0,80,0.00,,---,0.00,VWS V14.01,2014-07-23 18:06:00,
2014-07-23 13:07:00,80.9,73.4,29.91,North,358,0.0,0.0,78,0.00,,---,0.00,VWS V14.01,2014-07-23 18:07:00,
2014-07-23 13:08:00,80.7,74.0,29.92,North,357,0.0,0.0,80,0.00,,---,0.00,VWS V14.01,2014-07-23 18:08:00,
2014-07-23 13:09:00,80.9,74.2,29.92,North,357,0.0,0.0,80,0.00,,---,0.00,VWS V14.01,2014-07-23 18:09:00,
2014-07-23 13:10:00,80.9,74.2,29.92,North,357,0.0,0.0,80,0.00,,---,0.00,VWS V14.01,2014-07-23 18:10:00,
2014-07-23 13:11:00,80.9,74.2,29.92,North,357,0.0,0.0,80,0.00,,---,0.00,VWS V14.01,2014-07-23 18:11:00,
2014-07-23 13:12:00,80.7,73.2,29.92,North,358,0.0,0.0,78,0.00,,---,0.00,VWS V14.01,2014-07-23 18:12:00,
2014-07-23 13:13:00,80.9,73.8,29.92,North,357,0.0,0.0,79,0.00,,---,0.00,VWS V14.01,2014-07-23 18:13:00,
2014-07-23 13:14:00,81.1,74.3,29.92,North,358,0.0,0.0,80,0.00,,---,0.00,VWS V14.01,2014-07-23 18:14:00,
2014-07-23 13:15:00,81.1,74.7,29.92,North,358,0.0,0.0,81,0.00,,---,0.00,VWS V14.01,2014-07-23 18:15:00,
2014-07-23 13:16:00,81.2,74.4,29.92,NNW,347,0.0,0.0,80,0.00,,---,0.00,VWS V14.01,2014-07-23 18:16:00,
2014-07-23 13:17:00,80.7,74.0,29.92,North,357,0.0,0.0,80,0.00,,---,0.00,VWS V14.01,2014-07-23 18:17:00,
2014-07-23 13:18:00,81.6,74.8,29.92,North,0,1.0,4.0,80,0.00,,---,0.00,VWS V14.01,2014-07-23 18:18:00,
2014-07-23 13:19:00,81.6,74.1,29.92,North,0,1.0,4.0,78,0.00,,---,0.00,VWS V14.01,2014-07-23 18:19:00,
2014-07-23 13:20:00,81.8,74.3,29.92,North,0,0.0,0.0,78,0.00,,---,0.00,VWS V14.01,2014-07-23 18:20:00,
2014-07-23 13:21:00,81.8,74.3,29.92,North,1,0.0,0.0,78,0.00,,---,0.00,VWS V14.01,2014-07-23 18:21:00,
2014-07-23 13:22:00,80.9,74.2,29.92,North,357,0.0,0.0,80,0.00,,---,0.00,VWS V14.01,2014-07-23 18:22:00,
2014-07-23 13:23:00,82.0,74.1,29.92,North,1,0.0,0.0,77,0.00,,---,0.00,VWS V14.01,2014-07-23 18:23:00,
2014-07-23 13:24:00,82.0,74.5,29.92,North,0,0.0,0.0,78,0.00,,---,0.00,VWS V14.01,2014-07-23 18:24:00,
2014-07-23 13:25:00,82.0,74.1,29.92,North,0,0.0,0.0,77,0.00,,---,0.00,VWS V14.01,2014-07-23 18:25:00,
2014-07-23 13:26:00,82.0,74.1,29.92,North,356,2.0,4.0,77,0.00,,---,0.00,VWS V14.01,2014-07-23 18:26:00,
2014-07-23 13:27:00,81.4,74.6,29.92,North,358,3.0,4.0,80,0.00,,---,0.00,VWS V14.01,2014-07-23 18:27:00,
2014-07-23 13:28:00,82.0,74.1,29.92,North,10,2.0,4.0,77,0.00,,---,0.00,VWS V14.01,2014-07-23 18:28:00,
2014-07-23 13:29:00,82.0,74.1,29.92,North,10,0.0,4.0,77,0.00,,---,0.00,VWS V14.01,2014-07-23 18:29:00,
2014-07-23 13:30:00,82.0,74.1,29.92,North,0,1.0,3.0,77,0.00,,---,0.00,VWS V14.01,2014-07-23 18:30:00,
2014-07-23 13:31:00,82.0,74.5,29.92,North,11,3.0,5.0,78,0.00,,---,0.00,VWS V14.01,2014-07-23 18:31:00,
2014-07-23 13:32:00,82.0,74.5,29.92,North,1,0.0,0.0,78,0.00,,---,0.00,VWS V14.01,2014-07-23 18:32:00,
2014-07-23 13:33:00,82.0,74.5,29.92,East,91,1.0,5.0,78,0.00,,---,0.00,VWS V14.01,2014-07-23 18:33:00,
2014-07-23 13:34:00,82.0,74.1,29.92,North,0,7.0,7.0,77,0.00,,---,0.00,VWS V14.01,2014-07-23 18:34:00,
2014-07-23 13:35:00,82.0,74.5,29.92,North,2,0.0,1.0,78,0.00,,---,0.00,VWS V14.01,2014-07-23 18:35:00,
2014-07-23 13:36:00,82.0,74.8,29.92,NE,53,3.0,4.0,79,0.00,,---,0.00,VWS V14.01,2014-07-23 18:36:00,
2014-07-23 13:37:00,82.0,74.1,29.92,North,10,2.0,4.0,77,0.00,,---,0.00,VWS V14.01,2014-07-23 18:37:00,
2014-07-23 13:38:00,81.8,73.9,29.92,NE,34,1.0,4.0,77,0.00,,---,0.00,VWS V14.01,2014-07-23 18:38:00,
2014-07-23 13:39:00,81.8,74.3,29.92,NE,34,0.0,4.0,78,0.00,,---,0.00,VWS V14.01,2014-07-23 18:39:00,
2014-07-23 13:40:00,81.8,74.7,29.92,North,0,6.0,6.0,79,0.00,,---,0.00,VWS V14.01,2014-07-23 18:40:00,
2014-07-23 13:41:00,81.8,74.7,29.92,North,349,4.0,6.0,79,0.00,,---,0.00,VWS V14.01,2014-07-23 18:41:00,
2014-07-23 13:42:00,82.0,74.5,29.92,ENE,66,2.0,5.0,78,0.00,,---,0.00,VWS V14.01,2014-07-23 18:42:00,
2014-07-23 13:43:00,82.0,74.1,29.92,North,352,2.0,6.0,77,0.00,,---,0.00,VWS V14.01,2014-07-23 18:43:00,
2014-07-23 13:44:00,82.2,75.4,29.92,North,356,4.0,10.0,80,0.00,,---,0.00,VWS V14.01,2014-07-23 18:44:00,
2014-07-23 13:45:00,82.4,74.5,29.92,North,358,5.0,5.0,77,0.00,,---,0.00,VWS V14.01,2014-07-23 18:45:00,
2014-07-23 13:46:00,82.4,74.5,29.92,North,8,3.0,6.0,77,0.00,,---,0.00,VWS V14.01,2014-07-23 18:46:00,
2014-07-23 13:47:00,81.8,73.9,29.92,NE,34,2.0,4.0,77,0.00,,---,0.00,VWS V14.01,2014-07-23 18:47:00,
2014-07-23 13:48:00,82.8,74.9,29.92,North,358,0.0,6.0,77,0.00,,---,0.00,VWS V14.01,2014-07-23 18:48:00,
2014-07-23 13:49:00,83.0,74.3,29.92,NE,53,5.0,10.0,75,0.00,,---,0.00,VWS V14.01,2014-07-23 18:49:00,
2014-07-23 13:50:00,83.0,74.3,29.92,ENE,63,3.0,3.0,75,0.00,,---,0.00,VWS V14.01,2014-07-23 18:50:00,
2014-07-23 13:51:00,83.2,74.8,29.92,North,0,7.0,7.0,76,0.00,,---,0.00,VWS V14.01,2014-07-23 18:51:00,
2014-07-23 13:52:00,82.0,74.1,29.92,NE,39,0.0,6.0,77,0.00,,---,0.00,VWS V14.01,2014-07-23 18:52:00,
2014-07-23 13:53:00,83.2,74.5,29.92,North,358,4.0,7.0,75,0.00,,---,0.00,VWS V14.01,2014-07-23 18:53:00,
2014-07-23 13:54:00,83.4,74.7,29.92,North,0,4.0,7.0,75,0.00,,---,0.00,VWS V14.01,2014-07-23 18:54:00,
2014-07-23 13:55:00,83.4,73.8,29.92,NNW,341,2.0,3.0,73,0.00,,---,0.00,VWS V14.01,2014-07-23 18:55:00,
2014-07-23 13:56:00,83.6,75.2,29.92,North,353,2.0,3.0,76,0.00,,---,0.00,VWS V14.01,2014-07-23 18:56:00,
2014-07-23 13:57:00,82.8,74.9,29.92,North,0,0.0,6.0,77,0.00,,---,0.00,VWS V14.01,2014-07-23 18:57:00,
2014-07-23 13:58:00,83.6,74.4,29.92,WSW,258,0.0,5.0,74,0.00,,---,0.00,VWS V14.01,2014-07-23 18:58:00,
2014-07-23 13:59:00,83.6,74.0,29.92,WNW,290,6.0,9.0,73,0.00,,---,0.00,VWS V14.01,2014-07-23 18:59:00,
2014-07-23 14:00:00,83.6,74.4,29.92,West,274,0.0,0.0,74,0.00,,---,0.00,VWS V14.01,2014-07-23 19:00:00,
2014-07-23 14:01:00,83.6,74.4,29.92,NNW,333,7.0,7.0,74,0.00,,---,0.00,VWS V14.01,2014-07-23 19:01:00,
2014-07-23 14:02:00,83.2,74.5,29.92,North,358,4.0,7.0,75,0.00,,---,0.00,VWS V14.01,2014-07-23 19:02:00,
2014-07-23 14:03:00,83.2,74.5,29.92,NNW,338,4.0,7.0,75,0.00,,---,0.00,VWS V14.01,2014-07-23 19:03:00,
2014-07-23 14:04:00,83.2,74.5,29.92,NE,46,2.0,7.0,75,0.00,,---,0.00,VWS V14.01,2014-07-23 19:04:00,
2014-07-23 14:05:00,83.0,74.7,29.92,North,11,0.0,0.0,76,0.00,,---,0.00,VWS V14.01,2014-07-23 19:05:00,
2014-07-23 14:06:00,83.0,74.3,29.92,NW,305,1.0,6.0,75,0.00,,---,0.00,VWS V14.01,2014-07-23 19:06:00,
2014-07-23 14:07:00,83.6,74.4,29.92,WSW,250,0.0,5.0,74,0.00,,---,0.00,VWS V14.01,2014-07-23 19:07:00,
2014-07-23 14:08:00,82.8,73.7,29.92,NNW,335,6.0,7.0,74,0.00,,---,0.00,VWS V14.01,2014-07-23 19:08:00,
2014-07-23 14:09:00,82.6,74.3,29.92,North,349,3.0,7.0,76,0.00,,---,0.00,VWS V14.01,2014-07-23 19:09:00,
2014-07-23 14:10:00,82.8,74.5,29.92,North,357,3.0,4.0,76,0.00,,---,0.00,VWS V14.01,2014-07-23 19:10:00,
2014-07-23 14:11:00,82.8,74.5,29.92,NE,37,1.0,4.0,76,0.00,,---,0.00,VWS V14.01,2014-07-23 19:11:00,
2014-07-23 14:12:00,83.2,74.5,29.92,NNE,25,5.0,7.0,75,0.00,,---,0.00,VWS V14.01,2014-07-23 19:12:00,
2014-07-23 14:13:00,83.0,74.7,29.92,NE,41,0.0,4.0,76,0.00,,---,0.00,VWS V14.01,2014-07-23 19:13:00,
2014-07-23 14:14:00,83.0,75.1,29.92,NW,319,4.0,7.0,77,0.00,,---,0.00,VWS V14.01,2014-07-23 19:14:00,
2014-07-23 14:15:00,83.0,75.1,29.92,ENE,63,3.0,5.0,77,0.00,,---,0.00,VWS V14.01,2014-07-23 19:15:00,
2014-07-23 14:16:00,83.0,73.9,29.92,North,4,5.0,6.0,74,0.00,,---,0.00,VWS V14.01,2014-07-23 19:16:00,
2014-07-23 14:17:00,82.8,73.7,29.92,West,281,7.0,7.0,74,0.00,,---,0.00,VWS V14.01,2014-07-23 19:17:00,
2014-07-23 14:18:00,83.0,74.3,29.92,North,0,4.0,7.0,75,0.00,,---,0.00,VWS V14.01,2014-07-23 19:18:00,
2014-07-23 14:19:00,83.0,74.3,29.92,ENE,76,2.0,7.0,75,0.00,,---,0.00,VWS V14.01,2014-07-23 19:19:00,
2014-07-23 14:20:00,83.0,74.3,29.92,North,356,5.0,9.0,75,0.00,,---,0.00,VWS V14.01,2014-07-23 19:20:00,
2014-07-23 14:21:00,83.2,74.1,29.92,North,1,4.0,9.0,74,0.00,,---,0.00,VWS V14.01,2014-07-23 19:21:00,
2014-07-23 14:22:00,82.8,74.5,29.92,NE,41,2.0,4.0,76,0.00,,---,0.00,VWS V14.01,2014-07-23 19:22:00,
2014-07-23 14:23:00,83.2,74.5,29.92,North,0,6.0,9.0,75,0.00,,---,0.00,VWS V14.01,2014-07-23 19:23:00,
2014-07-23 14:24:00,83.2,73.7,29.92,WNW,298,5.0,9.0,73,0.00,,---,0.00,VWS V14.01,2014-07-23 19:24:00,
2014-07-23 14:25:00,83.2,74.1,29.92,North,349,5.0,9.0,74,0.00,,---,0.00,VWS V14.01,2014-07-23 19:25:00,
2014-07-23 14:26:00,83.4,73.8,29.92,West,280,7.0,9.0,73,0.00,,---,0.00,VWS V14.01,2014-07-23 19:26:00,
2014-07-23 14:27:00,83.0,74.3,29.92,North,0,4.0,7.0,75,0.00,,---,0.00,VWS V14.01,2014-07-23 19:27:00,
2014-07-23 14:28:00,83.4,74.7,29.92,North,352,1.0,9.0,75,0.00,,---,0.00,VWS V14.01,2014-07-23 19:28:00,
2014-07-23 14:29:00,83.6,74.4,29.92,North,0,4.0,10.0,74,0.00,,---,0.00,VWS V14.01,2014-07-23 19:29:00,
2014-07-23 14:30:00,83.6,74.4,29.92,North,358,6.0,6.0,74,0.00,,---,0.00,VWS V14.01,2014-07-23 19:30:00,
2014-07-23 14:31:00,83.6,74.0,29.92,NNE,20,3.0,10.0,73,0.00,,---,0.00,VWS V14.01,2014-07-23 19:31:00,
2014-07-23 14:32:00,83.2,74.1,29.92,East,84,5.0,9.0,74,0.00,,---,0.00,VWS V14.01,2014-07-23 19:32:00,
2014-07-23 14:33:00,83.4,73.4,29.92,WNW,302,2.0,10.0,72,0.00,,---,0.00,VWS V14.01,2014-07-23 19:33:00,
2014-07-23 14:34:00,83.4,74.2,29.92,NNW,335,1.0,10.0,74,0.00,,---,0.00,VWS V14.01,2014-07-23 19:34:00,
2014-07-23 14:35:00,83.4,74.2,29.92,East,100,5.0,8.0,74,0.00,,---,0.00,VWS V14.01,2014-07-23 19:35:00,
2014-07-23 14:36:00,83.4,74.2,29.92,NNE,15,6.0,8.0,74,0.00,,---,0.00,VWS V14.01,2014-07-23 19:36:00,
2014-07-23 14:37:00,83.4,74.7,29.92,North,353,0.0,9.0,75,0.00,,---,0.00,VWS V14.01,2014-07-23 19:37:00,
2014-07-23 14:38:00,83.4,74.2,29.92,NNE,16,3.0,8.0,74,0.00,,---,0.00,VWS V14.01,2014-07-23 19:38:00,
2014-07-23 14:39:00,83.4,75.4,29.92,NE,37,2.0,8.0,77,0.00,,---,0.00,VWS V14.01,2014-07-23 19:39:00,
2014-07-23 14:42:00,83.4,73.4,29.92,North,2,3.0,10.0,72,0.00,,---,0.00,VWS V14.01,2014-07-23 19:42:00,
2014-07-23 14:47:00,83.2,74.1,29.92,WNW,297,0.0,8.0,74,0.00,,---,0.00,VWS V14.01,2014-07-23 19:47:00,